Time,TemperatureF,DewpointF,PressureIn,WindDirection,WindDirectionDegrees,WindSpeedMPH,WindSpeedGustMPH,Humidity,HourlyPrecipIn,Conditions,Clouds,dailyrainin,SoftwareType,DateUTC
2013-08-11 00:00:00,60.1,58.7,30.00,North,351,2.1,3.5,95,0.00,CLR,OVC,0.00,WeatherDisplay:10.37,2013-08-11 04:00:00,
2013-08-11 00:01:00,60.1,58.7,30.01,North,351,2.0,3.5,95,0.00,CLR,OVC,0.00,WeatherDisplay:10.37,2013-08-11 04:01:00,
2013-08-11 00:06:00,60.2,58.8,30.00,North,351,2.0,3.5,95,0.00,CLR,OVC,0.00,WeatherDisplay:10.37,2013-08-11 04:06:00,
2013-08-11 00:07:00,60.3,58.9,30.00,North,351,1.9,2.3,95,0.00,CLR,OVC,0.00,WeatherDisplay:10.37,2013-08-11 04:07:00,
2013-08-11 00:11:00,60.3,58.9,30.00,North,351,1.2,2.3,95,0.00,CLR,OVC,0.00,WeatherDisplay:10.37,2013-08-11 04:11:00,
2013-08-11 00:12:00,60.3,58.9,30.00,North,351,1.5,2.3,95,0.00,CLR,OVC,0.00,WeatherDisplay:10.37,2013-08-11 04:12:00,
2013-08-11 00:16:00,60.3,58.9,30.00,North,351,1.4,2.3,95,0.00,CLR,OVC,0.00,WeatherDisplay:10.37,2013-08-11 04:16:00,
2013-08-11 00:17:00,60.4,59.0,30.00,North,351,1.5,2.3,95,0.00,CLR,OVC,0.00,WeatherDisplay:10.37,2013-08-11 04:17:00,
2013-08-11 00:21:00,60.4,59.0,30.00,North,351,0.0,0.0,95,0.00,CLR,OVC,0.00,WeatherDisplay:10.37,2013-08-11 04:21:00,
2013-08-11 00:22:00,60.4,59.0,30.00,North,351,0.0,0.0,95,0.00,CLR,OVC,0.00,WeatherDisplay:10.37,2013-08-11 04:22:00,
2013-08-11 00:23:00,60.4,59.0,30.00,North,351,0.0,0.0,95,0.00,CLR,OVC,0.00,WeatherDisplay:10.37,2013-08-11 04:23:00,
2013-08-11 00:27:00,60.4,59.0,30.00,North,351,0.0,0.0,95,0.00,CLR,OVC,0.00,WeatherDisplay:10.37,2013-08-11 04:27:00,
2013-08-11 00:28:00,60.4,59.0,30.00,North,351,0.0,0.0,95,0.00,CLR,OVC,0.00,WeatherDisplay:10.37,2013-08-11 04:28:00,
2013-08-11 00:32:00,60.6,59.2,30.00,North,351,0.0,0.0,95,0.00,CLR,OVC,0.00,WeatherDisplay:10.37,2013-08-11 04:32:00,
2013-08-11 00:33:00,60.6,59.2,30.00,North,351,0.0,0.0,95,0.00,CLR,OVC,0.00,WeatherDisplay:10.37,2013-08-11 04:33:00,
2013-08-11 00:37:00,60.6,59.5,30.00,North,351,0.0,0.0,96,0.00,CLR,OVC,0.00,WeatherDisplay:10.37,2013-08-11 04:37:00,
2013-08-11 00:38:00,60.6,59.2,30.00,North,351,0.2,1.2,95,0.00,CLR,OVC,0.00,WeatherDisplay:10.37,2013-08-11 04:38:00,
2013-08-11 00:42:00,60.6,59.5,30.00,North,351,0.3,1.2,96,0.00,CLR,OVC,0.00,WeatherDisplay:10.37,2013-08-11 04:42:00,
2013-08-11 00:43:00,60.6,59.2,29.99,North,351,0.0,1.2,95,0.00,CLR,OVC,0.00,WeatherDisplay:10.37,2013-08-11 04:43:00,
2013-08-11 00:44:00,60.6,59.5,30.00,North,351,0.0,1.0,96,0.00,CLR,OVC,0.00,WeatherDisplay:10.37,2013-08-11 04:44:00,
2013-08-11 00:48:00,60.6,59.5,29.99,North,351,0.8,1.2,96,0.00,CLR,OVC,0.00,WeatherDisplay:10.37,2013-08-11 04:48:00,
2013-08-11 00:49:00,60.6,59.5,30.00,North,351,1.5,2.3,96,0.00,CLR,OVC,0.00,WeatherDisplay:10.37,2013-08-11 04:49:00,
2013-08-11 00:53:00,60.6,59.5,29.99,North,351,1.5,2.3,96,0.00,CLR,OVC,0.00,WeatherDisplay:10.37,2013-08-11 04:53:00,
2013-08-11 00:54:00,60.6,59.5,30.00,North,351,1.4,2.3,96,0.00,CLR,OVC,0.00,WeatherDisplay:10.37,2013-08-11 04:54:00,
2013-08-11 00:58:00,60.5,59.4,30.00,North,351,0.1,1.2,96,0.00,CLR,OVC,0.00,WeatherDisplay:10.37,2013-08-11 04:58:00,
2013-08-11 00:59:00,60.4,59.3,29.99,North,351,0.5,2.0,96,0.00,CLR,OVC,0.00,WeatherDisplay:10.37,2013-08-11 04:59:00,
2013-08-11 01:03:00,60.4,59.3,29.99,North,351,0.8,4.0,96,0.00,CLR,OVC,0.00,WeatherDisplay:10.37,2013-08-11 05:03:00,
2013-08-11 01:04:00,60.4,59.3,29.99,North,351,3.3,3.5,96,0.00,CLR,OVC,0.00,WeatherDisplay:10.37,2013-08-11 05:04:00,
2013-08-11 01:05:00,60.4,59.3,29.99,North,351,2.9,3.5,96,0.00,CLR,OVC,0.00,WeatherDisplay:10.37,2013-08-11 05:05:00,
2013-08-11 01:10:00,60.3,59.2,29.99,North,351,2.8,3.5,96,0.00,CLR,OVC,0.00,WeatherDisplay:10.37,2013-08-11 05:10:00,
2013-08-11 01:15:00,60.2,59.1,29.99,North,351,1.4,2.3,96,0.00,CLR,OVC,0.00,WeatherDisplay:10.37,2013-08-11 05:15:00,
2013-08-11 01:16:00,60.2,59.1,29.99,North,351,1.4,3.5,96,0.00,CLR,OVC,0.00,WeatherDisplay:10.37,2013-08-11 05:16:00,
2013-08-11 01:17:00,60.2,59.3,29.99,North,351,2.7,4.0,97,0.00,CLR,OVC,0.00,WeatherDisplay:10.37,2013-08-11 05:17:00,
2013-08-11 01:21:00,60.2,59.3,30.00,North,351,2.3,3.5,97,0.00,CLR,OVC,0.00,WeatherDisplay:10.37,2013-08-11 05:21:00,
2013-08-11 01:22:00,60.2,59.3,30.00,North,351,3.4,4.0,97,0.00,CLR,OVC,0.00,WeatherDisplay:10.37,2013-08-11 05:22:00,
2013-08-11 01:26:00,60.2,59.1,30.00,North,351,2.6,4.6,96,0.00,CLR,OVC,0.00,WeatherDisplay:10.37,2013-08-11 05:26:00,
2013-08-11 01:27:00,60.2,59.1,30.00,North,351,2.8,4.6,96,0.00,CLR,OVC,0.00,WeatherDisplay:10.37,2013-08-11 05:27:00,
2013-08-11 01:28:00,60.2,59.1,30.00,North,351,3.1,3.5,96,0.00,CLR,OVC,0.00,WeatherDisplay:10.37,2013-08-11 05:28:00,
2013-08-11 01:31:00,60.3,59.2,30.00,SW,227,2.7,3.5,96,0.00,CLR,OVC,0.00,WeatherDisplay:10.37,2013-08-11 05:31:00,
2013-08-11 01:32:00,60.3,59.2,30.00,SW,227,2.8,3.5,96,0.00,CLR,OVC,0.00,WeatherDisplay:10.37,2013-08-11 05:32:00,
2013-08-11 01:33:00,60.3,59.2,30.00,SW,227,2.6,3.5,96,0.00,CLR,OVC,0.00,WeatherDisplay:10.37,2013-08-11 05:33:00,
2013-08-11 01:36:00,60.4,59.3,30.00,SW,227,3.2,4.6,96,0.00,CLR,OVC,0.00,WeatherDisplay:10.37,2013-08-11 05:36:00,
2013-08-11 01:38:00,60.4,59.3,30.00,SW,227,3.4,3.5,96,0.00,CLR,OVC,0.00,WeatherDisplay:10.37,2013-08-11 05:38:00,
2013-08-11 01:41:00,60.5,59.4,30.00,SW,227,0.7,2.3,96,0.00,CLR,OVC,0.00,WeatherDisplay:10.37,2013-08-11 05:41:00,
2013-08-11 01:42:00,60.5,59.4,30.00,SW,227,0.7,2.0,96,0.00,CLR,OVC,0.00,WeatherDisplay:10.37,2013-08-11 05:42:00,
2013-08-11 01:43:00,60.5,59.4,30.00,SW,227,1.7,2.3,96,0.00,CLR,OVC,0.00,WeatherDisplay:10.37,2013-08-11 05:43:00,
2013-08-11 01:45:00,60.6,59.5,30.00,SW,227,2.6,3.5,96,0.00,CLR,OVC,0.00,WeatherDisplay:10.37,2013-08-11 05:45:00,
2013-08-11 01:47:00,60.6,59.5,30.00,SW,227,2.6,3.5,96,0.00,CLR,OVC,0.00,WeatherDisplay:10.37,2013-08-11 05:47:00,
2013-08-11 01:48:00,60.6,59.5,30.01,SW,227,2.6,4.0,96,0.00,CLR,OVC,0.00,WeatherDisplay:10.37,2013-08-11 05:48:00,
2013-08-11 01:49:00,60.6,59.5,30.00,SW,227,2.4,3.5,96,0.00,CLR,OVC,0.00,WeatherDisplay:10.37,2013-08-11 05:49:00,
2013-08-11 01:50:00,60.6,59.5,30.01,SW,227,1.6,3.5,96,0.00,CLR,OVC,0.00,WeatherDisplay:10.37,2013-08-11 05:50:00,
2013-08-11 01:53:00,60.6,59.5,30.01,SW,227,1.1,2.3,96,0.00,CLR,OVC,0.00,WeatherDisplay:10.37,2013-08-11 05:53:00,
2013-08-11 01:54:00,60.6,59.5,30.00,SW,227,0.5,2.3,96,0.00,CLR,OVC,0.00,WeatherDisplay:10.37,2013-08-11 05:54:00,
2013-08-11 01:55:00,60.7,59.6,30.00,SW,227,0.2,1.2,96,0.00,CLR,OVC,0.00,WeatherDisplay:10.37,2013-08-11 05:55:00,
2013-08-11 01:58:00,60.7,59.6,30.01,SW,227,0.9,2.3,96,0.00,CLR,OVC,0.00,WeatherDisplay:10.37,2013-08-11 05:58:00,
2013-08-11 02:00:00,60.7,59.6,30.01,SW,227,0.1,1.2,96,0.00,CLR,OVC,0.00,WeatherDisplay:10.37,2013-08-11 06:00:00,
2013-08-11 02:05:00,60.6,59.5,30.00,SW,227,0.0,0.0,96,0.00,CLR,OVC,0.00,WeatherDisplay:10.37,2013-08-11 06:05:00,
2013-08-11 02:07:00,60.7,59.6,30.01,SW,227,0.0,0.0,96,0.00,CLR,OVC,0.00,WeatherDisplay:10.37,2013-08-11 06:07:00,
2013-08-11 02:10:00,60.6,59.5,30.00,SW,227,0.0,0.0,96,0.00,CLR,OVC,0.00,WeatherDisplay:10.37,2013-08-11 06:10:00,
2013-08-11 02:11:00,60.6,59.5,30.00,SW,227,0.0,0.0,96,0.00,CLR,OVC,0.00,WeatherDisplay:10.37,2013-08-11 06:11:00,
2013-08-11 02:13:00,60.7,59.6,30.01,SW,227,0.0,0.0,96,0.00,CLR,OVC,0.00,WeatherDisplay:10.37,2013-08-11 06:13:00,
2013-08-11 02:15:00,60.7,59.6,30.01,SW,227,1.2,2.3,96,0.00,CLR,OVC,0.00,WeatherDisplay:10.37,2013-08-11 06:15:00,
2013-08-11 02:16:00,60.7,59.6,30.01,SW,227,0.8,1.2,96,0.00,CLR,OVC,0.00,WeatherDisplay:10.37,2013-08-11 06:16:00,
2013-08-11 02:18:00,60.8,59.7,30.01,SW,227,1.2,2.3,96,0.00,CLR,OVC,0.00,WeatherDisplay:10.37,2013-08-11 06:18:00,
2013-08-11 02:21:00,60.8,59.7,30.01,SW,227,0.8,2.3,96,0.00,CLR,OVC,0.00,WeatherDisplay:10.37,2013-08-11 06:21:00,
2013-08-11 02:23:00,60.8,59.7,30.01,SW,227,0.0,0.0,96,0.00,CLR,OVC,0.00,WeatherDisplay:10.37,2013-08-11 06:23:00,
2013-08-11 02:24:00,60.8,59.7,30.01,SW,227,0.0,0.0,96,0.00,CLR,OVC,0.00,WeatherDisplay:10.37,2013-08-11 06:24:00,
2013-08-11 02:27:00,60.8,59.7,30.01,SW,227,0.2,1.2,96,0.00,CLR,OVC,0.00,WeatherDisplay:10.37,2013-08-11 06:27:00,
2013-08-11 02:28:00,60.8,59.7,30.00,SW,227,0.0,1.2,96,0.00,CLR,OVC,0.00,WeatherDisplay:10.37,2013-08-11 06:28:00,
2013-08-11 02:29:00,60.7,59.3,30.00,SW,227,0.0,0.0,95,0.00,CLR,OVC,0.00,WeatherDisplay:10.37,2013-08-11 06:29:00,
2013-08-11 02:31:00,60.7,59.3,30.00,SW,227,0.0,0.0,95,0.00,CLR,OVC,0.00,WeatherDisplay:10.37,2013-08-11 06:31:00,
2013-08-11 02:34:00,60.8,59.7,30.00,SW,227,0.2,2.0,96,0.00,CLR,OVC,0.00,WeatherDisplay:10.37,2013-08-11 06:34:00,
2013-08-11 02:35:00,60.8,59.4,30.00,SW,227,1.4,2.3,95,0.00,CLR,OVC,0.00,WeatherDisplay:10.37,2013-08-11 06:35:00,
2013-08-11 02:36:00,60.8,59.7,30.00,SW,227,2.0,2.3,96,0.00,CLR,OVC,0.00,WeatherDisplay:10.37,2013-08-11 06:36:00,
2013-08-11 02:39:00,60.8,59.4,30.01,SW,227,0.8,3.5,95,0.00,CLR,OVC,0.00,WeatherDisplay:10.37,2013-08-11 06:39:00,
2013-08-11 02:40:00,60.8,59.4,30.01,SW,227,1.5,3.0,95,0.00,CLR,OVC,0.00,WeatherDisplay:10.37,2013-08-11 06:40:00,
2013-08-11 02:42:00,60.8,59.4,30.00,SW,227,2.5,3.5,95,0.00,CLR,OVC,0.00,WeatherDisplay:10.37,2013-08-11 06:42:00,
2013-08-11 02:44:00,60.7,59.3,30.00,SW,227,1.1,2.3,95,0.00,CLR,OVC,0.00,WeatherDisplay:10.37,2013-08-11 06:44:00,
2013-08-11 02:45:00,60.7,59.3,30.00,SW,227,1.1,2.3,95,0.00,CLR,OVC,0.00,WeatherDisplay:10.37,2013-08-11 06:45:00,
2013-08-11 02:48:00,60.6,59.2,30.00,SW,227,0.1,1.2,95,0.00,CLR,OVC,0.00,WeatherDisplay:10.37,2013-08-11 06:48:00,
2013-08-11 02:50:00,60.6,59.2,30.00,SW,227,0.0,0.0,95,0.00,CLR,OVC,0.00,WeatherDisplay:10.37,2013-08-11 06:50:00,
2013-08-11 02:51:00,60.5,59.1,30.00,SW,227,0.0,0.0,95,0.00,CLR,OVC,0.00,WeatherDisplay:10.37,2013-08-11 06:51:00,
2013-08-11 02:53:00,60.5,59.1,30.00,SW,227,0.0,0.0,95,0.00,CLR,OVC,0.00,WeatherDisplay:10.37,2013-08-11 06:53:00,
2013-08-11 02:55:00,60.4,59.0,30.00,SW,227,0.0,0.0,95,0.00,CLR,OVC,0.00,WeatherDisplay:10.37,2013-08-11 06:55:00,
2013-08-11 02:56:00,60.4,59.0,30.00,SW,227,0.0,0.0,95,0.00,CLR,OVC,0.00,WeatherDisplay:10.37,2013-08-11 06:56:00,
2013-08-11 02:58:00,60.3,58.9,30.00,SW,227,0.0,0.0,95,0.00,CLR,OVC,0.00,WeatherDisplay:10.37,2013-08-11 06:58:00,
2013-08-11 03:01:00,60.2,58.8,30.00,SW,227,1.0,2.3,95,0.00,CLR,OVC,0.00,WeatherDisplay:10.37,2013-08-11 07:01:00,
2013-08-11 03:02:00,60.1,58.7,30.00,SW,227,1.0,2.3,95,0.00,CLR,OVC,0.00,WeatherDisplay:10.37,2013-08-11 07:02:00,
2013-08-11 03:05:00,59.9,58.2,30.00,SW,227,1.0,2.3,94,0.00,CLR,OVC,0.00,WeatherDisplay:10.37,2013-08-11 07:05:00,
2013-08-11 03:06:00,59.9,58.2,30.00,SW,227,0.0,1.2,94,0.00,CLR,OVC,0.00,WeatherDisplay:10.37,2013-08-11 07:06:00,
2013-08-11 03:07:00,59.9,58.2,30.00,SW,227,0.4,1.2,94,0.00,CLR,OVC,0.00,WeatherDisplay:10.37,2013-08-11 07:07:00,
2013-08-11 03:10:00,59.7,58.0,30.00,SW,227,1.3,2.3,94,0.00,CLR,OVC,0.00,WeatherDisplay:10.37,2013-08-11 07:10:00,
2013-08-11 03:11:00,59.7,58.0,30.00,SW,227,1.5,2.3,94,0.00,CLR,OVC,0.00,WeatherDisplay:10.37,2013-08-11 07:11:00,
2013-08-11 03:13:00,59.7,58.3,30.00,SW,227,0.7,2.3,95,0.00,CLR,OVC,0.00,WeatherDisplay:10.37,2013-08-11 07:13:00,
2013-08-11 03:15:00,59.6,57.9,30.00,SW,227,1.8,2.0,94,0.00,CLR,OVC,0.00,WeatherDisplay:10.37,2013-08-11 07:15:00,
2013-08-11 03:16:00,59.6,57.9,30.00,SW,227,2.2,3.5,94,0.00,CLR,OVC,0.00,WeatherDisplay:10.37,2013-08-11 07:16:00,
2013-08-11 03:18:00,59.5,57.8,30.00,SW,227,1.0,3.5,94,0.00,CLR,OVC,0.00,WeatherDisplay:10.37,2013-08-11 07:18:00,
2013-08-11 03:20:00,59.4,58.0,30.00,SW,227,2.0,3.5,95,0.00,CLR,OVC,0.00,WeatherDisplay:10.37,2013-08-11 07:20:00,
2013-08-11 03:22:00,59.3,57.6,30.00,SW,227,2.7,3.5,94,0.00,CLR,OVC,0.00,WeatherDisplay:10.37,2013-08-11 07:22:00,
2013-08-11 03:24:00,59.3,57.6,30.00,SW,227,1.9,3.5,94,0.00,CLR,OVC,0.00,WeatherDisplay:10.37,2013-08-11 07:24:00,
2013-08-11 03:26:00,59.1,57.4,30.01,SW,227,0.2,1.2,94,0.00,CLR,OVC,0.00,WeatherDisplay:10.37,2013-08-11 07:26:00,
2013-08-11 03:27:00,59.1,57.4,30.01,SW,227,0.5,1.2,94,0.00,CLR,OVC,0.00,WeatherDisplay:10.37,2013-08-11 07:27:00,
2013-08-11 03:30:00,58.9,57.5,30.01,SW,227,0.1,1.0,95,0.00,CLR,OVC,0.00,WeatherDisplay:10.37,2013-08-11 07:30:00,
2013-08-11 03:32:00,58.8,57.4,30.01,SW,227,0.2,2.0,95,0.00,CLR,OVC,0.00,WeatherDisplay:10.37,2013-08-11 07:32:00,
2013-08-11 03:34:00,58.8,57.4,30.01,SW,227,2.1,3.5,95,0.00,CLR,OVC,0.00,WeatherDisplay:10.37,2013-08-11 07:34:00,
2013-08-11 03:35:00,58.8,57.4,30.01,SW,227,2.2,3.5,95,0.00,CLR,OVC,0.00,WeatherDisplay:10.37,2013-08-11 07:35:00,
2013-08-11 03:37:00,58.7,57.3,30.01,SW,227,2.3,3.5,95,0.00,CLR,OVC,0.00,WeatherDisplay:10.37,2013-08-11 07:37:00,
2013-08-11 03:39:00,58.6,57.2,30.01,SW,227,2.4,3.5,95,0.00,CLR,OVC,0.00,WeatherDisplay:10.37,2013-08-11 07:39:00,
2013-08-11 03:41:00,58.4,57.0,30.01,SW,227,2.0,3.5,95,0.00,CLR,OVC,0.00,WeatherDisplay:10.37,2013-08-11 07:41:00,
2013-08-11 03:42:00,58.6,57.2,30.01,SW,227,0.0,1.2,95,0.00,CLR,OVC,0.00,WeatherDisplay:10.37,2013-08-11 07:42:00,
2013-08-11 03:44:00,58.6,57.2,30.01,SW,227,0.6,2.3,95,0.00,CLR,OVC,0.00,WeatherDisplay:10.37,2013-08-11 07:44:00,
2013-08-11 03:47:00,58.4,57.0,30.01,SW,227,2.5,3.5,95,0.00,CLR,OVC,0.00,WeatherDisplay:10.37,2013-08-11 07:47:00,
2013-08-11 03:49:00,58.3,56.9,30.01,SW,227,2.2,3.5,95,0.00,CLR,OVC,0.00,WeatherDisplay:10.37,2013-08-11 07:49:00,
2013-08-11 03:53:00,58.2,56.8,30.01,SW,227,1.2,2.3,95,0.00,CLR,OVC,0.00,WeatherDisplay:10.37,2013-08-11 07:53:00,
2013-08-11 03:55:00,58.1,57.0,30.01,SW,227,0.0,1.2,96,0.00,CLR,OVC,0.00,WeatherDisplay:10.37,2013-08-11 07:55:00,
2013-08-11 03:58:00,58.0,56.9,30.01,SW,227,0.6,2.3,96,0.00,CLR,OVC,0.00,WeatherDisplay:10.37,2013-08-11 07:58:00,
2013-08-11 04:00:00,57.9,56.5,30.01,SW,227,0.2,1.2,95,0.00,CLR,OVC,0.00,WeatherDisplay:10.37,2013-08-11 08:00:00,
2013-08-11 04:04:00,57.5,56.4,30.01,SW,227,0.0,0.0,96,0.00,CLR,OVC,0.00,WeatherDisplay:10.37,2013-08-11 08:04:00,
2013-08-11 04:06:00,57.4,56.3,30.01,SW,227,0.0,0.0,96,0.00,CLR,OVC,0.00,WeatherDisplay:10.37,2013-08-11 08:06:00,
2013-08-11 04:09:00,57.4,56.3,30.01,SW,227,0.0,0.0,96,0.00,CLR,OVC,0.00,WeatherDisplay:10.37,2013-08-11 08:09:00,
2013-08-11 04:10:00,57.3,55.9,30.02,SW,227,0.0,0.0,95,0.00,CLR,OVC,0.00,WeatherDisplay:10.37,2013-08-11 08:10:00,
2013-08-11 04:12:00,57.3,55.9,30.01,SW,227,2.6,3.5,95,0.00,CLR,OVC,0.00,WeatherDisplay:10.37,2013-08-11 08:12:00,
2013-08-11 04:14:00,57.1,56.0,30.01,SW,227,2.6,3.5,96,0.00,CLR,OVC,0.00,WeatherDisplay:10.37,2013-08-11 08:14:00,
2013-08-11 04:15:00,57.2,56.1,30.01,SW,227,2.5,3.5,96,0.00,CLR,OVC,0.00,WeatherDisplay:10.37,2013-08-11 08:15:00,
2013-08-11 04:17:00,57.1,56.0,30.01,SW,227,2.9,3.5,96,0.00,CLR,OVC,0.00,WeatherDisplay:10.37,2013-08-11 08:17:00,
2013-08-11 04:20:00,57.0,55.9,30.01,SW,227,0.4,2.3,96,0.00,CLR,OVC,0.00,WeatherDisplay:10.37,2013-08-11 08:20:00,
2013-08-11 04:22:00,57.0,55.9,30.01,SW,227,1.8,3.5,96,0.00,CLR,OVC,0.00,WeatherDisplay:10.37,2013-08-11 08:22:00,
2013-08-11 04:23:00,57.0,56.2,30.01,SW,227,2.7,3.5,97,0.00,CLR,OVC,0.00,WeatherDisplay:10.37,2013-08-11 08:23:00,
2013-08-11 04:25:00,56.9,56.1,30.01,SW,227,2.7,3.5,97,0.00,CLR,OVC,0.00,WeatherDisplay:10.37,2013-08-11 08:25:00,
2013-08-11 04:27:00,56.9,55.8,30.01,SW,227,2.8,3.5,96,0.00,CLR,OVC,0.00,WeatherDisplay:10.37,2013-08-11 08:27:00,
2013-08-11 04:28:00,56.9,55.8,30.01,SW,227,2.7,3.5,96,0.00,CLR,OVC,0.00,WeatherDisplay:10.37,2013-08-11 08:28:00,
2013-08-11 04:30:00,56.8,56.0,30.01,SW,227,2.1,3.5,97,0.00,CLR,OVC,0.00,WeatherDisplay:10.37,2013-08-11 08:30:00,
2013-08-11 04:32:00,56.8,56.0,30.01,SW,227,2.6,3.5,97,0.00,CLR,OVC,0.00,WeatherDisplay:10.37,2013-08-11 08:32:00,
2013-08-11 04:33:00,56.7,55.9,30.01,SW,227,2.0,3.5,97,0.00,CLR,OVC,0.00,WeatherDisplay:10.37,2013-08-11 08:33:00,
2013-08-11 04:34:00,56.3,55.2,30.01,SW,227,0.9,3.5,96,0.00,CLR,OVC,0.00,WeatherDisplay:10.37,2013-08-11 08:34:00,
2013-08-11 04:35:00,56.7,55.9,30.02,SW,227,0.0,0.0,97,0.00,CLR,OVC,0.00,WeatherDisplay:10.37,2013-08-11 08:35:00,
2013-08-11 04:39:00,56.6,55.8,30.01,SW,227,0.9,2.3,97,0.00,CLR,OVC,0.00,WeatherDisplay:10.37,2013-08-11 08:39:00,
2013-08-11 04:41:00,56.6,56.0,30.02,SW,227,0.7,1.0,98,0.00,CLR,OVC,0.00,WeatherDisplay:10.37,2013-08-11 08:41:00,
2013-08-11 04:44:00,56.4,55.6,30.02,SW,227,0.0,2.0,97,0.00,CLR,OVC,0.00,WeatherDisplay:10.37,2013-08-11 08:44:00,
2013-08-11 04:45:00,56.4,55.6,30.02,SW,227,0.0,0.0,97,0.00,CLR,OVC,0.00,WeatherDisplay:10.37,2013-08-11 08:45:00,
2013-08-11 04:49:00,56.4,55.6,30.02,SW,227,1.1,2.3,97,0.00,CLR,OVC,0.00,WeatherDisplay:10.37,2013-08-11 08:49:00,
2013-08-11 04:50:00,56.4,55.8,30.02,SW,227,0.9,2.3,98,0.00,CLR,OVC,0.00,WeatherDisplay:10.37,2013-08-11 08:50:00,
2013-08-11 04:51:00,56.4,55.8,30.02,SW,227,0.5,1.2,98,0.00,CLR,OVC,0.00,WeatherDisplay:10.37,2013-08-11 08:51:00,
2013-08-11 04:55:00,56.3,55.7,30.02,SW,227,0.0,0.0,98,0.00,CLR,OVC,0.00,WeatherDisplay:10.37,2013-08-11 08:55:00,
2013-08-11 04:57:00,56.3,55.7,30.02,SW,227,1.4,2.3,98,0.00,CLR,OVC,0.00,WeatherDisplay:10.37,2013-08-11 08:57:00,
2013-08-11 04:58:00,56.3,55.5,30.02,SW,227,1.1,2.3,97,0.00,CLR,OVC,0.00,WeatherDisplay:10.37,2013-08-11 08:58:00,
2013-08-11 05:02:00,56.1,55.5,30.02,SW,227,0.8,2.3,98,0.00,CLR,OVC,0.00,WeatherDisplay:10.37,2013-08-11 09:02:00,
2013-08-11 05:03:00,56.1,55.5,30.02,SW,227,0.8,1.2,98,0.00,CLR,OVC,0.00,WeatherDisplay:10.37,2013-08-11 09:03:00,
2013-08-11 05:08:00,56.1,55.5,30.03,SW,227,0.0,1.2,98,0.00,CLR,OVC,0.00,WeatherDisplay:10.37,2013-08-11 09:08:00,
2013-08-11 05:09:00,56.1,55.5,30.03,SW,227,0.0,0.0,98,0.00,CLR,OVC,0.00,WeatherDisplay:10.37,2013-08-11 09:09:00,
2013-08-11 05:13:00,56.2,55.6,30.03,SW,227,0.0,1.2,98,0.00,CLR,OVC,0.00,WeatherDisplay:10.37,2013-08-11 09:13:00,
2013-08-11 05:14:00,56.2,55.6,30.03,SW,227,0.2,1.2,98,0.00,CLR,OVC,0.00,WeatherDisplay:10.37,2013-08-11 09:14:00,
2013-08-11 05:15:00,56.2,55.6,30.03,SW,227,0.9,2.0,98,0.00,CLR,OVC,0.00,WeatherDisplay:10.37,2013-08-11 09:15:00,
2013-08-11 05:17:00,56.2,55.6,30.03,SW,227,1.1,2.3,98,0.00,CLR,OVC,0.00,WeatherDisplay:10.37,2013-08-11 09:17:00,
2013-08-11 05:19:00,56.2,55.6,30.02,SW,227,0.4,1.2,98,0.00,CLR,OVC,0.00,WeatherDisplay:10.37,2013-08-11 09:19:00,
2013-08-11 05:20:00,56.1,55.5,30.02,SW,227,0.1,1.2,98,0.00,CLR,OVC,0.00,WeatherDisplay:10.37,2013-08-11 09:20:00,
2013-08-11 05:21:00,56.1,55.5,30.02,SW,227,0.0,0.0,98,0.00,CLR,OVC,0.00,WeatherDisplay:10.37,2013-08-11 09:21:00,
2013-08-11 05:23:00,56.1,55.5,30.03,SW,227,0.0,0.0,98,0.00,CLR,OVC,0.00,WeatherDisplay:10.37,2013-08-11 09:23:00,
2013-08-11 05:25:00,56.1,55.5,30.03,SW,227,1.8,2.3,98,0.00,CLR,OVC,0.00,WeatherDisplay:10.37,2013-08-11 09:25:00,
2013-08-11 05:26:00,56.1,55.5,30.03,SW,227,1.4,2.3,98,0.00,CLR,OVC,0.00,WeatherDisplay:10.37,2013-08-11 09:26:00,
2013-08-11 05:28:00,56.0,55.4,30.03,SW,227,0.1,2.3,98,0.00,CLR,OVC,0.00,WeatherDisplay:10.37,2013-08-11 09:28:00,
2013-08-11 05:31:00,56.0,55.7,30.02,SW,227,1.5,2.3,99,0.00,CLR,OVC,0.00,WeatherDisplay:10.37,2013-08-11 09:31:00,
2013-08-11 05:32:00,55.9,55.6,30.03,SW,227,1.8,2.3,99,0.00,CLR,OVC,0.00,WeatherDisplay:10.37,2013-08-11 09:32:00,
2013-08-11 05:33:00,56.0,55.7,30.03,SW,227,1.6,2.3,99,0.00,CLR,OVC,0.00,WeatherDisplay:10.37,2013-08-11 09:33:00,
2013-08-11 05:34:00,55.9,55.3,30.03,SW,227,1.4,2.3,98,0.00,CLR,OVC,0.00,WeatherDisplay:10.37,2013-08-11 09:34:00,
2013-08-11 05:36:00,55.9,55.3,30.03,SW,227,0.0,1.2,98,0.00,CLR,OVC,0.00,WeatherDisplay:10.37,2013-08-11 09:36:00,
2013-08-11 05:38:00,55.8,55.5,30.03,SW,227,0.0,0.0,99,0.00,CLR,OVC,0.00,WeatherDisplay:10.37,2013-08-11 09:38:00,
2013-08-11 05:40:00,55.7,55.4,30.03,SW,227,0.0,0.0,99,0.00,CLR,OVC,0.00,WeatherDisplay:10.37,2013-08-11 09:40:00,
2013-08-11 05:44:00,55.7,55.4,30.03,SW,227,0.0,0.0,99,0.00,CLR,OVC,0.00,WeatherDisplay:10.37,2013-08-11 09:44:00,
2013-08-11 05:45:00,55.7,55.4,30.03,SW,227,0.0,0.0,99,0.00,CLR,OVC,0.00,WeatherDisplay:10.37,2013-08-11 09:45:00,
2013-08-11 05:50:00,55.7,55.4,30.03,SW,227,2.0,3.5,99,0.00,CLR,OVC,0.00,WeatherDisplay:10.37,2013-08-11 09:50:00,
2013-08-11 05:51:00,55.7,55.1,30.03,SW,227,2.0,3.5,98,0.00,CLR,OVC,0.00,WeatherDisplay:10.37,2013-08-11 09:51:00,
2013-08-11 05:55:00,55.6,55.0,30.03,SW,227,1.2,2.3,98,0.00,CLR,OVC,0.00,WeatherDisplay:10.37,2013-08-11 09:55:00,
2013-08-11 05:56:00,55.6,55.3,30.03,SW,227,1.0,2.3,99,0.00,CLR,OVC,0.00,WeatherDisplay:10.37,2013-08-11 09:56:00,
2013-08-11 06:00:00,55.6,55.0,30.03,SW,227,1.8,3.5,98,0.00,CLR,OVC,0.00,WeatherDisplay:10.37,2013-08-11 10:00:00,
2013-08-11 06:02:00,55.6,55.3,30.03,SW,227,1.1,2.3,99,0.00,CLR,OVC,0.00,WeatherDisplay:10.37,2013-08-11 10:02:00,
2013-08-11 06:03:00,55.6,55.3,30.03,SW,227,0.9,2.3,99,0.00,CLR,OVC,0.00,WeatherDisplay:10.37,2013-08-11 10:03:00,
2013-08-11 06:06:00,55.7,55.4,30.03,SW,227,1.5,2.3,99,0.00,CLR,OVC,0.00,WeatherDisplay:10.37,2013-08-11 10:06:00,
2013-08-11 06:07:00,55.7,55.4,30.03,SW,227,1.1,2.3,99,0.00,CLR,OVC,0.00,WeatherDisplay:10.37,2013-08-11 10:07:00,
2013-08-11 06:08:00,55.7,55.4,30.03,SW,227,1.0,2.3,99,0.00,CLR,OVC,0.00,WeatherDisplay:10.37,2013-08-11 10:08:00,
2013-08-11 06:12:00,55.8,55.5,30.03,SW,227,0.0,0.0,99,0.00,CLR,OVC,0.00,WeatherDisplay:10.37,2013-08-11 10:12:00,
2013-08-11 06:13:00,55.7,55.4,30.03,SW,227,0.0,0.0,99,0.00,CLR,OVC,0.00,WeatherDisplay:10.37,2013-08-11 10:13:00,
2013-08-11 06:14:00,55.7,55.4,30.03,SW,227,0.0,0.0,99,0.00,CLR,OVC,0.00,WeatherDisplay:10.37,2013-08-11 10:14:00,
2013-08-11 06:17:00,55.7,55.4,30.03,SW,227,0.0,0.0,99,0.00,CLR,OVC,0.00,WeatherDisplay:10.37,2013-08-11 10:17:00,
2013-08-11 06:18:00,55.7,55.4,30.04,SW,227,0.0,0.0,99,0.00,CLR,OVC,0.00,WeatherDisplay:10.37,2013-08-11 10:18:00,
2013-08-11 06:19:00,55.7,55.5,30.03,SW,227,0.0,0.0,99,0.00,CLR,OVC,0.00,WeatherDisplay:10.37,2013-08-11 10:19:00,
2013-08-11 06:24:00,55.7,55.4,30.03,SW,227,0.0,0.0,99,0.00,CLR,OVC,0.00,WeatherDisplay:10.37,2013-08-11 10:24:00,
2013-08-11 06:25:00,55.7,55.4,30.03,SW,227,0.0,0.0,99,0.00,CLR,OVC,0.00,WeatherDisplay:10.37,2013-08-11 10:25:00,
2013-08-11 06:29:00,55.7,55.4,30.03,SW,227,0.7,2.3,99,0.00,CLR,OVC,0.00,WeatherDisplay:10.37,2013-08-11 10:29:00,
2013-08-11 06:30:00,55.7,55.4,30.03,SW,227,0.2,1.2,99,0.00,CLR,OVC,0.00,WeatherDisplay:10.37,2013-08-11 10:30:00,
2013-08-11 06:34:00,55.7,55.4,30.03,SW,227,0.0,1.0,99,0.00,CLR,OVC,0.00,WeatherDisplay:10.37,2013-08-11 10:34:00,
2013-08-11 06:35:00,55.7,55.4,30.04,SW,227,0.0,0.0,99,0.00,CLR,OVC,0.00,WeatherDisplay:10.37,2013-08-11 10:35:00,
2013-08-11 06:37:00,55.7,55.4,30.03,SW,227,0.0,0.0,99,0.00,CLR,OVC,0.00,WeatherDisplay:10.37,2013-08-11 10:37:00,
2013-08-11 06:39:00,55.7,55.4,30.04,SW,227,0.0,0.0,99,0.00,CLR,OVC,0.00,WeatherDisplay:10.37,2013-08-11 10:39:00,
2013-08-11 06:40:00,55.7,55.4,30.04,SW,227,0.0,0.0,99,0.00,CLR,OVC,0.00,WeatherDisplay:10.37,2013-08-11 10:40:00,
2013-08-11 06:42:00,55.7,55.4,30.04,SW,227,0.0,0.0,99,0.00,CLR,OVC,0.00,WeatherDisplay:10.37,2013-08-11 10:42:00,
2013-08-11 06:45:00,55.7,55.4,30.04,SW,227,0.0,0.0,99,0.00,CLR,OVC,0.00,WeatherDisplay:10.37,2013-08-11 10:45:00,
2013-08-11 06:46:00,55.7,55.7,30.04,SW,227,0.0,0.0,100,0.00,CLR,OVC,0.00,WeatherDisplay:10.37,2013-08-11 10:46:00,
2013-08-11 06:47:00,55.7,55.4,30.04,SW,227,0.0,0.0,99,0.00,CLR,OVC,0.00,WeatherDisplay:10.37,2013-08-11 10:47:00,
2013-08-11 06:49:00,55.7,55.4,30.04,SW,227,0.0,0.0,99,0.00,CLR,OVC,0.00,WeatherDisplay:10.37,2013-08-11 10:49:00,
2013-08-11 06:50:00,55.7,55.4,30.04,SW,227,0.0,0.0,99,0.00,CLR,OVC,0.00,WeatherDisplay:10.37,2013-08-11 10:50:00,
2013-08-11 06:51:00,55.7,55.7,30.04,SW,227,0.0,0.0,100,0.00,CLR,OVC,0.00,WeatherDisplay:10.37,2013-08-11 10:51:00,
2013-08-11 06:53:00,55.7,55.7,30.04,SW,227,0.0,0.0,100,0.00,CLR,OVC,0.00,WeatherDisplay:10.37,2013-08-11 10:53:00,
2013-08-11 06:54:00,55.7,55.4,30.04,SW,227,1.8,3.5,99,0.00,CLR,OVC,0.00,WeatherDisplay:10.37,2013-08-11 10:54:00,
2013-08-11 06:57:00,55.7,55.7,30.04,SW,227,0.6,2.3,100,0.00,CLR,OVC,0.00,WeatherDisplay:10.37,2013-08-11 10:57:00,
2013-08-11 06:58:00,55.7,55.7,30.04,SW,227,0.0,1.2,100,0.00,CLR,OVC,0.00,WeatherDisplay:10.37,2013-08-11 10:58:00,
2013-08-11 07:03:00,55.7,55.7,30.04,SW,227,0.7,1.2,100,0.00,CLR,OVC,0.00,WeatherDisplay:10.37,2013-08-11 11:03:00,
2013-08-11 07:04:00,55.8,55.8,30.04,SW,227,0.5,2.3,100,0.00,CLR,OVC,0.00,WeatherDisplay:10.37,2013-08-11 11:04:00,
2013-08-11 07:08:00,55.9,55.6,30.04,SW,227,0.0,0.0,99,0.00,CLR,OVC,0.00,WeatherDisplay:10.37,2013-08-11 11:08:00,
2013-08-11 07:09:00,55.9,55.9,30.04,SW,227,0.0,0.0,100,0.00,CLR,OVC,0.00,WeatherDisplay:10.37,2013-08-11 11:09:00,
2013-08-11 07:10:00,55.9,55.9,30.04,SW,227,0.0,0.0,100,0.00,CLR,OVC,0.00,WeatherDisplay:10.37,2013-08-11 11:10:00,
2013-08-11 07:13:00,56.1,56.1,30.05,SW,227,0.0,0.0,100,0.00,CLR,OVC,0.00,WeatherDisplay:10.37,2013-08-11 11:13:00,
2013-08-11 07:14:00,56.1,56.1,30.05,SW,227,0.0,0.0,100,0.00,CLR,OVC,0.00,WeatherDisplay:10.37,2013-08-11 11:14:00,
2013-08-11 07:17:00,56.3,56.3,30.05,SW,227,0.0,1.0,100,0.00,CLR,OVC,0.00,WeatherDisplay:10.37,2013-08-11 11:17:00,
2013-08-11 07:18:00,56.4,56.4,30.05,SW,227,1.9,3.5,100,0.00,CLR,OVC,0.00,WeatherDisplay:10.37,2013-08-11 11:18:00,
2013-08-11 07:19:00,56.5,56.5,30.05,SW,227,1.5,3.5,100,0.00,CLR,OVC,0.00,WeatherDisplay:10.37,2013-08-11 11:19:00,
2013-08-11 07:20:00,56.6,56.6,30.05,SW,227,1.4,3.5,100,0.00,CLR,OVC,0.00,WeatherDisplay:10.37,2013-08-11 11:20:00,
2013-08-11 07:22:00,56.9,56.9,30.05,SW,227,0.4,1.2,100,0.00,CLR,OVC,0.00,WeatherDisplay:10.37,2013-08-11 11:22:00,
2013-08-11 07:24:00,57.1,57.1,30.05,SW,227,1.1,3.5,100,0.00,CLR,OVC,0.00,WeatherDisplay:10.37,2013-08-11 11:24:00,
2013-08-11 07:25:00,57.1,57.1,30.05,SW,227,1.1,2.3,100,0.00,CLR,OVC,0.00,WeatherDisplay:10.37,2013-08-11 11:25:00,
2013-08-11 07:27:00,57.3,57.3,30.05,SW,227,1.7,3.5,100,0.00,CLR,OVC,0.00,WeatherDisplay:10.37,2013-08-11 11:27:00,
2013-08-11 07:30:00,57.8,57.8,30.04,SSW,202,3.7,5.8,100,0.00,CLR,OVC,0.00,WeatherDisplay:10.37,2013-08-11 11:30:00,
2013-08-11 07:32:00,58.1,58.1,30.05,SSW,199,3.4,5.8,100,0.00,CLR,OVC,0.00,WeatherDisplay:10.37,2013-08-11 11:32:00,
2013-08-11 07:35:00,58.5,58.5,30.05,South,190,5.8,8.1,100,0.00,CLR,OVC,0.00,WeatherDisplay:10.37,2013-08-11 11:35:00,
2013-08-11 07:36:00,58.7,58.7,30.05,South,191,7.3,9.2,100,0.00,CLR,OVC,0.00,WeatherDisplay:10.37,2013-08-11 11:36:00,
2013-08-11 07:38:00,59.0,59.0,30.05,SSE,158,6.1,9.2,100,0.00,CLR,OVC,0.00,WeatherDisplay:10.37,2013-08-11 11:38:00,
2013-08-11 07:40:00,59.3,59.3,30.05,SSW,193,5.6,8.1,100,0.00,CLR,OVC,0.00,WeatherDisplay:10.37,2013-08-11 11:40:00,
2013-08-11 07:42:00,59.7,59.7,30.05,SSW,194,6.1,8.1,100,0.00,CLR,OVC,0.00,WeatherDisplay:10.37,2013-08-11 11:42:00,
2013-08-11 07:43:00,59.8,59.8,30.05,South,186,5.2,8.1,100,0.00,CLR,OVC,0.00,WeatherDisplay:10.37,2013-08-11 11:43:00,
2013-08-11 07:44:00,59.9,59.9,30.05,South,187,5.5,8.1,100,0.00,CLR,OVC,0.00,WeatherDisplay:10.37,2013-08-11 11:44:00,
2013-08-11 07:45:00,60.1,59.8,30.05,South,174,5.4,8.1,99,0.00,CLR,OVC,0.00,WeatherDisplay:10.37,2013-08-11 11:45:00,
2013-08-11 07:47:00,60.4,60.1,30.05,South,181,3.7,6.9,99,0.00,CLR,OVC,0.00,WeatherDisplay:10.37,2013-08-11 11:47:00,
2013-08-11 07:49:00,60.6,60.0,30.05,South,182,5.0,8.0,98,0.00,CLR,OVC,0.00,WeatherDisplay:10.37,2013-08-11 11:49:00,
2013-08-11 07:50:00,60.8,60.2,30.05,South,181,3.9,5.8,98,0.00,CLR,OVC,0.00,WeatherDisplay:10.37,2013-08-11 11:50:00,
2013-08-11 07:53:00,61.0,60.4,30.05,South,174,4.8,6.0,98,0.00,CLR,OVC,0.00,WeatherDisplay:10.37,2013-08-11 11:53:00,
2013-08-11 07:54:00,61.2,60.6,30.05,South,187,5.0,8.1,98,0.00,CLR,OVC,0.00,WeatherDisplay:10.37,2013-08-11 11:54:00,
2013-08-11 07:55:00,61.3,60.7,30.05,SSW,202,5.3,8.1,98,0.00,CLR,OVC,0.00,WeatherDisplay:10.37,2013-08-11 11:55:00,
2013-08-11 07:58:00,61.5,60.6,30.05,SSW,199,4.8,8.1,97,0.00,CLR,OVC,0.00,WeatherDisplay:10.37,2013-08-11 11:58:00,
2013-08-11 08:00:00,61.6,60.4,30.05,SSE,164,6.0,8.1,96,0.00,CLR,OVC,0.00,WeatherDisplay:10.37,2013-08-11 12:00:00,
2013-08-11 08:05:00,61.9,60.5,30.05,South,189,6.1,8.1,95,0.00,CLR,OVC,0.00,WeatherDisplay:10.37,2013-08-11 12:05:00,
2013-08-11 08:06:00,62.0,60.6,30.05,SSW,201,4.6,7.0,95,0.00,CLR,OVC,0.00,WeatherDisplay:10.37,2013-08-11 12:06:00,
2013-08-11 08:12:00,62.3,60.6,30.05,SSE,163,6.0,8.1,94,0.00,CLR,OVC,0.00,WeatherDisplay:10.37,2013-08-11 12:12:00,
2013-08-11 08:14:00,62.4,60.3,30.05,South,170,6.8,9.2,93,0.00,CLR,OVC,0.00,WeatherDisplay:10.37,2013-08-11 12:14:00,
2013-08-11 08:17:00,62.5,60.4,30.05,SSE,168,5.6,9.2,93,0.00,CLR,OVC,0.00,WeatherDisplay:10.37,2013-08-11 12:17:00,
2013-08-11 08:18:00,62.5,60.4,30.05,South,169,5.3,9.2,93,0.00,CLR,OVC,0.00,WeatherDisplay:10.37,2013-08-11 12:18:00,
2013-08-11 08:19:00,62.6,60.5,30.05,South,188,6.6,6.9,93,0.00,CLR,OVC,0.00,WeatherDisplay:10.37,2013-08-11 12:19:00,
2013-08-11 08:20:00,62.7,60.3,30.05,South,185,8.4,11.5,92,0.00,CLR,OVC,0.00,WeatherDisplay:10.37,2013-08-11 12:20:00,
2013-08-11 08:23:00,62.8,60.1,30.05,South,189,6.7,9.2,91,0.00,CLR,OVC,0.00,WeatherDisplay:10.37,2013-08-11 12:23:00,
2013-08-11 08:24:00,62.9,60.5,30.05,South,185,6.5,9.2,92,0.00,CLR,OVC,0.00,WeatherDisplay:10.37,2013-08-11 12:24:00,
2013-08-11 08:28:00,63.1,60.4,30.05,SSW,194,8.0,9.2,91,0.00,CLR,OVC,0.00,WeatherDisplay:10.37,2013-08-11 12:28:00,
2013-08-11 08:30:00,63.2,60.5,30.05,South,182,5.0,9.0,91,0.00,CLR,OVC,0.00,WeatherDisplay:10.37,2013-08-11 12:30:00,
2013-08-11 08:33:00,63.4,60.4,30.05,South,191,6.1,9.2,90,0.00,CLR,OVC,0.00,WeatherDisplay:10.37,2013-08-11 12:33:00,
2013-08-11 08:35:00,63.5,60.5,30.05,SSE,151,6.4,8.1,90,0.00,CLR,OVC,0.00,WeatherDisplay:10.37,2013-08-11 12:35:00,
2013-08-11 08:38:00,63.8,60.8,30.05,South,178,4.0,7.0,90,0.00,CLR,OVC,0.00,WeatherDisplay:10.37,2013-08-11 12:38:00,
2013-08-11 08:41:00,64.0,60.7,30.05,South,174,6.7,11.5,89,0.00,CLR,OVC,0.00,WeatherDisplay:10.37,2013-08-11 12:41:00,
2013-08-11 08:45:00,64.2,60.9,30.05,South,176,7.1,9.2,89,0.00,CLR,OVC,0.00,WeatherDisplay:10.37,2013-08-11 12:45:00,
2013-08-11 08:47:00,64.3,61.0,30.05,SSE,165,6.5,9.2,89,0.00,CLR,OVC,0.00,WeatherDisplay:10.37,2013-08-11 12:47:00,
2013-08-11 08:50:00,64.6,61.3,30.06,South,178,4.9,8.1,89,0.00,CLR,OVC,0.00,WeatherDisplay:10.37,2013-08-11 12:50:00,
2013-08-11 08:52:00,64.7,61.4,30.06,SSW,203,4.8,6.9,89,0.00,CLR,OVC,0.00,WeatherDisplay:10.37,2013-08-11 12:52:00,
2013-08-11 08:53:00,64.9,61.6,30.06,SW,218,5.7,8.1,89,0.00,CLR,OVC,0.00,WeatherDisplay:10.37,2013-08-11 12:53:00,
2013-08-11 08:55:00,65.0,61.7,30.05,South,178,5.3,6.9,89,0.00,CLR,OVC,0.00,WeatherDisplay:10.37,2013-08-11 12:55:00,
2013-08-11 08:58:00,65.2,61.9,30.05,South,178,3.8,5.8,89,0.00,CLR,OVC,0.00,WeatherDisplay:10.37,2013-08-11 12:58:00,
2013-08-11 08:59:00,65.2,61.9,30.05,South,180,4.4,6.0,89,0.00,CLR,OVC,0.00,WeatherDisplay:10.37,2013-08-11 12:59:00,
2013-08-11 09:00:00,65.4,62.1,30.05,South,185,3.4,5.8,89,0.00,CLR,OVC,0.00,WeatherDisplay:10.37,2013-08-11 13:00:00,
2013-08-11 09:04:00,65.6,62.3,30.05,SW,216,5.3,7.0,89,0.00,CLR,OVC,0.00,WeatherDisplay:10.37,2013-08-11 13:04:00,
2013-08-11 09:05:00,65.7,62.0,30.05,SW,214,6.6,8.1,88,0.00,CLR,OVC,0.00,WeatherDisplay:10.37,2013-08-11 13:05:00,
2013-08-11 09:07:00,65.8,62.1,30.05,SSW,199,5.7,7.0,88,0.00,CLR,OVC,0.00,WeatherDisplay:10.37,2013-08-11 13:07:00,
2013-08-11 09:09:00,66.0,62.0,30.05,South,173,6.9,9.2,87,0.00,CLR,OVC,0.00,WeatherDisplay:10.37,2013-08-11 13:09:00,
2013-08-11 09:10:00,66.1,62.1,30.05,SSE,168,5.4,9.2,87,0.00,CLR,OVC,0.00,WeatherDisplay:10.37,2013-08-11 13:10:00,
2013-08-11 09:12:00,66.4,62.4,30.05,SSW,198,4.9,6.9,87,0.00,CLR,OVC,0.00,WeatherDisplay:10.37,2013-08-11 13:12:00,
2013-08-11 09:14:00,66.5,62.2,30.05,SW,214,5.6,9.2,86,0.00,CLR,OVC,0.00,WeatherDisplay:10.37,2013-08-11 13:14:00,
2013-08-11 09:16:00,66.6,61.9,30.05,SSW,212,6.1,8.1,85,0.00,CLR,OVC,0.00,WeatherDisplay:10.37,2013-08-11 13:16:00,
2013-08-11 09:17:00,66.8,62.5,30.05,SW,214,6.2,9.2,86,0.00,CLR,OVC,0.00,WeatherDisplay:10.37,2013-08-11 13:17:00,
2013-08-11 09:21:00,67.0,62.3,30.05,SW,216,6.6,8.1,85,0.00,CLR,OVC,0.00,WeatherDisplay:10.37,2013-08-11 13:21:00,
2013-08-11 09:23:00,67.0,62.7,30.05,SW,221,6.0,6.9,86,0.00,CLR,OVC,0.00,WeatherDisplay:10.37,2013-08-11 13:23:00,
2013-08-11 09:26:00,67.3,62.6,30.05,SW,218,5.5,8.1,85,0.00,CLR,OVC,0.00,WeatherDisplay:10.37,2013-08-11 13:26:00,
2013-08-11 09:27:00,67.4,62.7,30.05,SW,218,4.2,6.9,85,0.00,CLR,OVC,0.00,WeatherDisplay:10.37,2013-08-11 13:27:00,
2013-08-11 09:29:00,67.5,62.8,30.05,SSW,199,3.2,5.8,85,0.00,CLR,OVC,0.00,WeatherDisplay:10.37,2013-08-11 13:29:00,
2013-08-11 09:31:00,67.8,63.1,30.05,SSE,161,4.6,6.9,85,0.00,CLR,OVC,0.00,WeatherDisplay:10.37,2013-08-11 13:31:00,
2013-08-11 09:32:00,67.8,63.1,30.05,SSW,196,5.1,6.9,85,0.00,CLR,OVC,0.00,WeatherDisplay:10.37,2013-08-11 13:32:00,
2013-08-11 09:33:00,67.9,63.2,30.05,SSW,212,5.7,8.1,85,0.00,CLR,OVC,0.00,WeatherDisplay:10.37,2013-08-11 13:33:00,
2013-08-11 09:35:00,68.1,63.1,30.06,SW,218,6.0,10.4,84,0.00,CLR,OVC,0.00,WeatherDisplay:10.37,2013-08-11 13:35:00,
2013-08-11 09:36:00,68.2,63.2,30.06,SW,218,5.4,6.9,84,0.00,CLR,OVC,0.00,WeatherDisplay:10.37,2013-08-11 13:36:00,
2013-08-11 09:38:00,68.2,63.2,30.05,SSW,208,6.8,9.2,84,0.00,CLR,OVC,0.00,WeatherDisplay:10.37,2013-08-11 13:38:00,
2013-08-11 09:40:00,68.3,63.3,30.06,SW,217,7.2,8.1,84,0.00,CLR,OVC,0.00,WeatherDisplay:10.37,2013-08-11 13:40:00,
2013-08-11 09:43:00,68.5,63.1,30.05,SSW,212,6.5,7.0,83,0.00,CLR,OVC,0.00,WeatherDisplay:10.37,2013-08-11 13:43:00,
2013-08-11 09:44:00,68.5,63.1,30.06,SSW,213,7.0,9.2,83,0.00,CLR,OVC,0.00,WeatherDisplay:10.37,2013-08-11 13:44:00,
2013-08-11 09:46:00,68.6,62.9,30.06,SW,217,5.9,9.2,82,0.00,CLR,OVC,0.00,WeatherDisplay:10.37,2013-08-11 13:46:00,
2013-08-11 09:49:00,68.7,62.6,30.05,SSW,212,4.8,6.9,81,0.00,CLR,OVC,0.00,WeatherDisplay:10.37,2013-08-11 13:49:00,
2013-08-11 09:50:00,68.7,62.6,30.05,SSW,209,5.2,8.1,81,0.00,CLR,OVC,0.00,WeatherDisplay:10.37,2013-08-11 13:50:00,
2013-08-11 09:51:00,68.9,62.8,30.05,SSW,212,4.9,8.1,81,0.00,CLR,OVC,0.00,WeatherDisplay:10.37,2013-08-11 13:51:00,
2013-08-11 09:54:00,69.1,63.0,30.06,SW,220,7.0,10.0,81,0.00,CLR,OVC,0.00,WeatherDisplay:10.37,2013-08-11 13:54:00,
2013-08-11 09:55:00,69.1,62.7,30.05,SW,219,6.5,9.2,80,0.00,CLR,OVC,0.00,WeatherDisplay:10.37,2013-08-11 13:55:00,
2013-08-11 09:57:00,69.2,62.8,30.06,SW,220,4.6,7.0,80,0.00,CLR,OVC,0.00,WeatherDisplay:10.37,2013-08-11 13:57:00,
2013-08-11 09:59:00,69.3,63.2,30.05,SW,217,6.1,9.2,81,0.00,CLR,OVC,0.00,WeatherDisplay:10.37,2013-08-11 13:59:00,
2013-08-11 10:00:00,69.4,63.3,30.06,SW,218,4.7,9.2,81,0.00,CLR,OVC,0.00,WeatherDisplay:10.37,2013-08-11 14:00:00,
2013-08-11 10:03:00,69.5,63.1,30.06,SW,215,4.9,8.1,80,0.00,CLR,OVC,0.00,WeatherDisplay:10.37,2013-08-11 14:03:00,
2013-08-11 10:05:00,69.6,62.8,30.05,SW,215,4.9,8.0,79,0.00,CLR,OVC,0.00,WeatherDisplay:10.37,2013-08-11 14:05:00,
2013-08-11 10:06:00,69.7,62.9,30.05,SSW,205,6.9,9.0,79,0.00,CLR,OVC,0.00,WeatherDisplay:10.37,2013-08-11 14:06:00,
2013-08-11 10:08:00,69.9,63.1,30.05,SW,223,6.0,9.2,79,0.00,CLR,OVC,0.00,WeatherDisplay:10.37,2013-08-11 14:08:00,
2013-08-11 10:10:00,70.0,63.2,30.05,SW,226,4.2,10.4,79,0.00,CLR,OVC,0.00,WeatherDisplay:10.37,2013-08-11 14:10:00,
2013-08-11 10:12:00,70.1,63.3,30.05,SSW,194,5.5,8.1,79,0.00,CLR,OVC,0.00,WeatherDisplay:10.37,2013-08-11 14:12:00,
2013-08-11 10:13:00,70.2,63.0,30.05,South,175,5.0,8.0,78,0.00,CLR,OVC,0.00,WeatherDisplay:10.37,2013-08-11 14:13:00,
2013-08-11 10:16:00,70.3,62.7,30.05,South,183,5.7,8.1,77,0.00,CLR,OVC,0.00,WeatherDisplay:10.37,2013-08-11 14:16:00,
2013-08-11 10:18:00,70.6,63.0,30.05,SSW,204,5.4,6.9,77,0.00,CLR,OVC,0.00,WeatherDisplay:10.37,2013-08-11 14:18:00,
2013-08-11 10:21:00,70.8,63.6,30.05,SW,215,5.6,8.1,78,0.00,CLR,OVC,0.00,WeatherDisplay:10.37,2013-08-11 14:21:00,
2013-08-11 10:23:00,70.8,62.9,30.05,SW,221,6.0,9.2,76,0.00,CLR,OVC,0.00,WeatherDisplay:10.37,2013-08-11 14:23:00,
2013-08-11 10:24:00,70.8,62.9,30.05,SW,221,3.8,6.9,76,0.00,CLR,OVC,0.00,WeatherDisplay:10.37,2013-08-11 14:24:00,
2013-08-11 10:26:00,71.0,63.1,30.05,South,190,5.2,8.1,76,0.00,CLR,OVC,0.00,WeatherDisplay:10.37,2013-08-11 14:26:00,
2013-08-11 10:29:00,71.3,63.0,30.05,SW,217,6.3,8.1,75,0.00,CLR,OVC,0.00,WeatherDisplay:10.37,2013-08-11 14:29:00,
2013-08-11 10:31:00,71.5,63.2,30.05,SW,217,5.4,6.9,75,0.00,CLR,OVC,0.00,WeatherDisplay:10.37,2013-08-11 14:31:00,
2013-08-11 10:34:00,71.6,62.8,30.05,SSW,208,6.0,8.0,74,0.00,CLR,OVC,0.00,WeatherDisplay:10.37,2013-08-11 14:34:00,
2013-08-11 10:35:00,71.6,62.9,30.05,SSW,193,3.8,8.1,74,0.00,CLR,OVC,0.00,WeatherDisplay:10.37,2013-08-11 14:35:00,
2013-08-11 10:37:00,71.7,63.4,30.05,SSW,198,5.0,6.9,75,0.00,CLR,OVC,0.00,WeatherDisplay:10.37,2013-08-11 14:37:00,
2013-08-11 10:39:00,71.9,63.5,30.05,South,179,3.0,5.8,75,0.00,CLR,OVC,0.00,WeatherDisplay:10.37,2013-08-11 14:39:00,
2013-08-11 10:40:00,72.0,64.0,30.05,SSW,203,3.7,5.8,76,0.00,CLR,OVC,0.00,WeatherDisplay:10.37,2013-08-11 14:40:00,
2013-08-11 10:41:00,72.2,64.2,30.05,South,179,4.5,6.9,76,0.00,CLR,OVC,0.00,WeatherDisplay:10.37,2013-08-11 14:41:00,
2013-08-11 10:42:00,72.3,63.9,30.05,South,188,4.5,7.0,75,0.00,CLR,OVC,0.00,WeatherDisplay:10.37,2013-08-11 14:42:00,
2013-08-11 10:45:00,72.5,63.4,30.05,SW,234,6.2,8.1,73,0.00,CLR,OVC,0.00,WeatherDisplay:10.37,2013-08-11 14:45:00,
2013-08-11 10:47:00,72.5,63.7,30.05,SW,221,4.6,6.9,74,0.00,CLR,OVC,0.00,WeatherDisplay:10.37,2013-08-11 14:47:00,
2013-08-11 10:50:00,72.7,63.1,30.05,SW,224,6.0,8.1,72,0.00,CLR,OVC,0.00,WeatherDisplay:10.37,2013-08-11 14:50:00,
2013-08-11 10:53:00,72.6,62.7,30.05,South,191,4.8,5.8,71,0.00,CLR,OVC,0.00,WeatherDisplay:10.37,2013-08-11 14:53:00,
2013-08-11 10:54:00,72.7,62.8,30.05,SSW,199,4.5,6.0,71,0.00,CLR,OVC,0.00,WeatherDisplay:10.37,2013-08-11 14:54:00,
2013-08-11 10:56:00,72.8,63.6,30.05,SW,214,5.0,6.0,73,0.00,CLR,OVC,0.00,WeatherDisplay:10.37,2013-08-11 14:56:00,
2013-08-11 10:58:00,73.0,62.2,30.05,SSE,155,5.2,7.0,69,0.00,CLR,OVC,0.00,WeatherDisplay:10.37,2013-08-11 14:58:00,
2013-08-11 10:59:00,73.2,62.4,30.05,SE,134,4.5,6.9,69,0.00,CLR,OVC,0.00,WeatherDisplay:10.37,2013-08-11 14:59:00,
2013-08-11 11:01:00,73.3,62.5,30.06,SE,137,3.3,4.6,69,0.00,CLR,OVC,0.00,WeatherDisplay:10.37,2013-08-11 15:01:00,
2013-08-11 11:03:00,73.5,62.7,30.05,SSW,195,5.2,8.1,69,0.00,CLR,OVC,0.00,WeatherDisplay:10.37,2013-08-11 15:03:00,
2013-08-11 11:06:00,73.7,61.6,30.05,SW,219,4.5,8.1,66,0.00,CLR,OVC,0.00,WeatherDisplay:10.37,2013-08-11 15:06:00,
2013-08-11 11:08:00,73.8,62.6,30.05,SW,219,5.2,8.1,68,0.00,CLR,OVC,0.00,WeatherDisplay:10.37,2013-08-11 15:08:00,
2013-08-11 11:12:00,74.0,62.8,30.05,SSE,164,3.0,4.6,68,0.00,CLR,OVC,0.00,WeatherDisplay:10.37,2013-08-11 15:12:00,
2013-08-11 11:13:00,74.1,62.9,30.05,SSE,164,3.8,4.6,68,0.00,CLR,OVC,0.00,WeatherDisplay:10.37,2013-08-11 15:13:00,
2013-08-11 11:14:00,74.1,62.9,30.04,SSE,162,2.9,5.0,68,0.00,CLR,OVC,0.00,WeatherDisplay:10.37,2013-08-11 15:14:00,
2013-08-11 11:17:00,74.3,62.2,30.05,SSW,210,6.3,9.2,66,0.00,CLR,OVC,0.00,WeatherDisplay:10.37,2013-08-11 15:17:00,
2013-08-11 11:18:00,74.3,62.6,30.04,SW,216,5.3,9.2,67,0.00,CLR,OVC,0.00,WeatherDisplay:10.37,2013-08-11 15:18:00,
2013-08-11 11:19:00,74.3,62.7,30.05,South,182,6.0,9.0,67,0.00,CLR,OVC,0.00,WeatherDisplay:10.37,2013-08-11 15:19:00,
2013-08-11 11:23:00,74.6,63.3,30.04,SSE,162,6.2,8.1,68,0.00,CLR,OVC,0.00,WeatherDisplay:10.37,2013-08-11 15:23:00,
2013-08-11 11:24:00,74.6,62.9,30.04,SSE,162,4.5,6.9,67,0.00,CLR,OVC,0.00,WeatherDisplay:10.37,2013-08-11 15:24:00,
2013-08-11 11:28:00,74.6,62.1,30.04,SSE,159,3.7,4.6,65,0.00,CLR,OVC,0.00,WeatherDisplay:10.37,2013-08-11 15:28:00,
2013-08-11 11:29:00,74.9,62.8,30.04,SSE,159,3.9,5.0,66,0.00,CLR,OVC,0.00,WeatherDisplay:10.37,2013-08-11 15:29:00,
2013-08-11 11:30:00,74.9,63.2,30.05,South,181,6.0,11.5,67,0.00,CLR,OVC,0.00,WeatherDisplay:10.37,2013-08-11 15:30:00,
2013-08-11 11:34:00,74.8,62.2,30.05,South,181,3.2,6.0,65,0.00,CLR,OVC,0.00,WeatherDisplay:10.37,2013-08-11 15:34:00,
2013-08-11 11:35:00,75.1,62.5,30.04,SW,233,4.0,5.8,65,0.00,CLR,OVC,0.00,WeatherDisplay:10.37,2013-08-11 15:35:00,
2013-08-11 11:36:00,75.1,62.1,30.04,SW,233,4.3,8.1,64,0.00,CLR,OVC,0.00,WeatherDisplay:10.37,2013-08-11 15:36:00,
2013-08-11 11:40:00,75.1,63.4,30.04,SW,232,3.3,5.8,67,0.00,CLR,OVC,0.00,WeatherDisplay:10.37,2013-08-11 15:40:00,
2013-08-11 11:41:00,74.9,63.2,30.04,SE,143,2.0,4.6,67,0.00,CLR,OVC,0.00,WeatherDisplay:10.37,2013-08-11 15:41:00,
2013-08-11 11:45:00,75.3,61.8,30.04,SE,125,3.1,4.6,63,0.00,CLR,OVC,0.00,WeatherDisplay:10.37,2013-08-11 15:45:00,
2013-08-11 11:46:00,75.3,61.8,30.04,SE,125,2.6,4.0,63,0.00,CLR,OVC,0.00,WeatherDisplay:10.37,2013-08-11 15:46:00,
2013-08-11 11:50:00,75.1,62.1,30.03,SE,125,1.3,2.3,64,0.00,CLR,OVC,0.00,WeatherDisplay:10.37,2013-08-11 15:50:00,
2013-08-11 11:51:00,75.3,61.4,30.04,SE,125,2.3,3.5,62,0.00,CLR,OVC,0.00,WeatherDisplay:10.37,2013-08-11 15:51:00,
2013-08-11 11:56:00,75.4,61.9,30.03,SSE,156,3.9,6.9,63,0.00,CLR,OVC,0.00,WeatherDisplay:10.37,2013-08-11 15:56:00,
2013-08-11 11:57:00,75.6,62.6,30.03,ESE,107,5.1,8.0,64,0.00,CLR,OVC,0.00,WeatherDisplay:10.37,2013-08-11 15:57:00,
2013-08-11 12:00:00,75.6,62.1,30.03,South,184,3.8,6.9,63,0.00,CLR,OVC,0.00,WeatherDisplay:10.37,2013-08-11 16:00:00,
2013-08-11 12:01:00,75.9,62.4,30.03,SSE,159,4.3,6.0,63,0.00,CLR,OVC,0.00,WeatherDisplay:10.37,2013-08-11 16:01:00,
2013-08-11 12:03:00,76.0,62.5,30.03,SSE,159,1.9,5.8,63,0.00,CLR,OVC,0.00,WeatherDisplay:10.37,2013-08-11 16:03:00,
2013-08-11 12:06:00,76.0,62.5,30.03,SW,234,5.7,6.0,63,0.00,CLR,OVC,0.00,WeatherDisplay:10.37,2013-08-11 16:06:00,
2013-08-11 12:07:00,76.2,61.8,30.03,SW,236,6.6,9.2,61,0.00,CLR,OVC,0.00,WeatherDisplay:10.37,2013-08-11 16:07:00,
2013-08-11 12:09:00,76.1,61.7,30.03,WSW,238,4.8,5.8,61,0.00,CLR,OVC,0.00,WeatherDisplay:10.37,2013-08-11 16:09:00,
2013-08-11 12:11:00,76.0,62.0,30.03,SW,233,4.9,6.0,62,0.00,CLR,OVC,0.00,WeatherDisplay:10.37,2013-08-11 16:11:00,
2013-08-11 12:12:00,76.0,62.5,30.03,WSW,239,6.5,8.1,63,0.00,CLR,OVC,0.00,WeatherDisplay:10.37,2013-08-11 16:12:00,
2013-08-11 12:14:00,75.9,61.9,30.03,SW,231,6.0,9.0,62,0.00,CLR,OVC,0.00,WeatherDisplay:10.37,2013-08-11 16:14:00,
2013-08-11 12:16:00,75.8,62.3,30.03,SW,228,5.3,6.9,63,0.00,CLR,OVC,0.00,WeatherDisplay:10.37,2013-08-11 16:16:00,
2013-08-11 12:17:00,75.7,62.7,30.03,SW,228,3.1,5.8,64,0.00,CLR,OVC,0.00,WeatherDisplay:10.37,2013-08-11 16:17:00,
2013-08-11 12:18:00,75.7,62.7,30.03,SW,228,2.6,4.6,64,0.00,CLR,OVC,0.00,WeatherDisplay:10.37,2013-08-11 16:18:00,
2013-08-11 12:20:00,75.8,61.8,30.02,SW,226,2.9,4.0,62,0.00,CLR,OVC,0.00,WeatherDisplay:10.37,2013-08-11 16:20:00,
2013-08-11 12:22:00,76.1,62.6,30.03,SW,227,2.9,5.0,63,0.00,CLR,OVC,0.00,WeatherDisplay:10.37,2013-08-11 16:22:00,
2013-08-11 12:23:00,76.2,62.7,30.03,SW,214,3.1,8.0,63,0.00,CLR,OVC,0.00,WeatherDisplay:10.37,2013-08-11 16:23:00,
2013-08-11 12:25:00,76.2,61.8,30.02,SSW,212,6.9,8.1,61,0.00,CLR,OVC,0.00,WeatherDisplay:10.37,2013-08-11 16:25:00,
2013-08-11 12:28:00,76.3,61.9,30.02,SW,219,4.6,6.9,61,0.00,CLR,OVC,0.00,WeatherDisplay:10.37,2013-08-11 16:28:00,
2013-08-11 12:30:00,76.3,62.8,30.02,SW,217,3.7,7.0,63,0.00,CLR,OVC,0.00,WeatherDisplay:10.37,2013-08-11 16:30:00,
2013-08-11 12:33:00,76.4,62.0,30.02,SSW,200,4.5,7.0,61,0.00,CLR,OVC,0.00,WeatherDisplay:10.37,2013-08-11 16:33:00,
2013-08-11 12:36:00,76.5,61.1,30.02,SSW,194,1.7,3.5,59,0.00,CLR,OVC,0.00,WeatherDisplay:10.37,2013-08-11 16:36:00,
2013-08-11 12:38:00,76.6,62.1,30.02,SSW,211,4.3,6.9,61,0.00,CLR,OVC,0.00,WeatherDisplay:10.37,2013-08-11 16:38:00,
2013-08-11 12:41:00,76.8,61.9,30.02,South,187,4.2,6.9,60,0.00,CLR,OVC,0.00,WeatherDisplay:10.37,2013-08-11 16:41:00,
2013-08-11 12:42:00,76.8,61.9,30.02,South,187,3.8,5.0,60,0.00,CLR,OVC,0.00,WeatherDisplay:10.37,2013-08-11 16:42:00,
2013-08-11 12:44:00,76.8,62.3,30.02,SW,225,6.6,6.9,61,0.00,CLR,OVC,0.00,WeatherDisplay:10.37,2013-08-11 16:44:00,
2013-08-11 12:46:00,76.7,60.3,30.02,SW,225,1.3,3.5,57,0.00,CLR,OVC,0.00,WeatherDisplay:10.37,2013-08-11 16:46:00,
2013-08-11 12:47:00,76.7,60.8,30.02,SW,225,2.1,3.5,58,0.00,CLR,OVC,0.00,WeatherDisplay:10.37,2013-08-11 16:47:00,
2013-08-11 12:49:00,76.6,59.7,30.02,SSE,160,3.1,4.6,56,0.00,CLR,OVC,0.00,WeatherDisplay:10.37,2013-08-11 16:49:00,
2013-08-11 12:51:00,76.5,59.6,30.02,SSE,161,1.6,3.5,56,0.00,CLR,OVC,0.00,WeatherDisplay:10.37,2013-08-11 16:51:00,
2013-08-11 12:52:00,76.5,59.6,30.02,SSE,161,1.0,3.5,56,0.00,CLR,OVC,0.00,WeatherDisplay:10.37,2013-08-11 16:52:00,
2013-08-11 12:55:00,76.6,61.2,30.02,SSE,167,3.2,5.0,59,0.00,CLR,OVC,0.00,WeatherDisplay:10.37,2013-08-11 16:55:00,
2013-08-11 12:57:00,76.9,61.5,30.02,South,169,4.7,6.9,59,0.00,CLR,OVC,0.00,WeatherDisplay:10.37,2013-08-11 16:57:00,
2013-08-11 13:01:00,77.2,61.8,30.02,SW,222,4.5,5.8,59,0.00,CLR,OVC,0.00,WeatherDisplay:10.37,2013-08-11 17:01:00,
2013-08-11 13:02:00,77.2,61.8,30.02,SW,221,3.9,4.6,59,0.00,CLR,OVC,0.00,WeatherDisplay:10.37,2013-08-11 17:02:00,
2013-08-11 13:03:00,77.3,62.3,30.01,SW,223,5.7,8.0,60,0.00,CLR,OVC,0.00,WeatherDisplay:10.37,2013-08-11 17:03:00,
2013-08-11 13:07:00,77.4,61.0,30.02,SW,236,4.8,6.9,57,0.00,CLR,OVC,0.00,WeatherDisplay:10.37,2013-08-11 17:07:00,
2013-08-11 13:08:00,77.4,61.0,30.02,WSW,246,6.4,9.2,57,0.00,CLR,OVC,0.00,WeatherDisplay:10.37,2013-08-11 17:08:00,
2013-08-11 13:12:00,77.2,61.3,30.02,WSW,247,1.7,5.8,58,0.00,CLR,OVC,0.00,WeatherDisplay:10.37,2013-08-11 17:12:00,
2013-08-11 13:13:00,77.1,60.7,30.01,WSW,247,1.4,2.3,57,0.00,CLR,OVC,0.00,WeatherDisplay:10.37,2013-08-11 17:13:00,
2013-08-11 13:14:00,77.2,61.3,30.01,WSW,247,1.5,2.3,58,0.00,CLR,OVC,0.00,WeatherDisplay:10.37,2013-08-11 17:14:00,
2013-08-11 13:17:00,77.4,62.4,30.01,South,178,5.4,8.1,60,0.00,CLR,OVC,0.00,WeatherDisplay:10.37,2013-08-11 17:17:00,
2013-08-11 13:18:00,77.4,61.9,30.01,South,182,5.8,8.1,59,0.00,CLR,OVC,0.00,WeatherDisplay:10.37,2013-08-11 17:18:00,
2013-08-11 13:19:00,77.5,61.6,30.01,SSE,153,6.0,8.1,58,0.00,CLR,OVC,0.00,WeatherDisplay:10.37,2013-08-11 17:19:00,
2013-08-11 13:20:00,77.6,61.7,30.01,South,178,4.2,9.2,58,0.00,CLR,OVC,0.00,WeatherDisplay:10.37,2013-08-11 17:20:00,
2013-08-11 13:23:00,77.7,61.7,30.01,South,179,3.6,6.9,58,0.00,CLR,OVC,0.00,WeatherDisplay:10.37,2013-08-11 17:23:00,
2013-08-11 13:25:00,77.7,62.7,30.01,WSW,243,6.1,9.2,60,0.00,CLR,OVC,0.00,WeatherDisplay:10.37,2013-08-11 17:25:00,
2013-08-11 13:26:00,77.7,62.7,30.01,SW,222,8.5,10.0,60,0.00,CLR,OVC,0.00,WeatherDisplay:10.37,2013-08-11 17:26:00,
2013-08-11 13:29:00,77.6,61.2,30.01,SSW,204,4.5,6.9,57,0.00,CLR,OVC,0.00,WeatherDisplay:10.37,2013-08-11 17:29:00,
2013-08-11 13:31:00,77.5,61.6,30.01,SW,214,3.1,4.6,58,0.00,CLR,OVC,0.00,WeatherDisplay:10.37,2013-08-11 17:31:00,
2013-08-11 13:32:00,77.6,63.1,30.01,SSW,207,7.2,9.2,61,0.00,CLR,OVC,0.00,WeatherDisplay:10.37,2013-08-11 17:32:00,
2013-08-11 13:34:00,77.7,62.2,30.01,SW,224,5.7,8.0,59,0.00,CLR,OVC,0.00,WeatherDisplay:10.37,2013-08-11 17:34:00,
2013-08-11 13:37:00,77.5,61.6,30.01,SSW,203,5.5,6.0,58,0.00,CLR,OVC,0.00,WeatherDisplay:10.37,2013-08-11 17:37:00,
2013-08-11 13:38:00,77.6,62.1,30.01,SSW,203,5.5,8.1,59,0.00,CLR,OVC,0.00,WeatherDisplay:10.37,2013-08-11 17:38:00,
2013-08-11 13:40:00,77.6,61.7,30.00,SSW,204,4.6,6.0,58,0.00,CLR,OVC,0.00,WeatherDisplay:10.37,2013-08-11 17:40:00,
2013-08-11 13:41:00,77.6,61.2,30.00,SSW,204,1.4,5.8,57,0.00,CLR,OVC,0.00,WeatherDisplay:10.37,2013-08-11 17:41:00,
2013-08-11 13:43:00,77.7,62.2,30.00,SSW,204,2.8,4.0,59,0.00,CLR,OVC,0.00,WeatherDisplay:10.37,2013-08-11 17:43:00,
2013-08-11 13:44:00,77.8,62.3,30.00,SW,230,4.4,8.0,59,0.00,CLR,OVC,0.00,WeatherDisplay:10.37,2013-08-11 17:44:00,
2013-08-11 13:45:00,77.8,60.3,30.00,SW,232,5.5,8.1,55,0.00,CLR,OVC,0.00,WeatherDisplay:10.37,2013-08-11 17:45:00,
2013-08-11 13:49:00,78.0,61.5,30.00,West,259,3.0,5.0,57,0.00,CLR,OVC,0.00,WeatherDisplay:10.37,2013-08-11 17:49:00,
2013-08-11 13:51:00,78.1,62.1,30.00,West,261,2.9,5.8,58,0.00,CLR,OVC,0.00,WeatherDisplay:10.37,2013-08-11 17:51:00,
2013-08-11 13:54:00,78.3,62.3,30.00,SW,231,8.0,10.0,58,0.00,CLR,OVC,0.00,WeatherDisplay:10.37,2013-08-11 17:54:00,
2013-08-11 13:55:00,78.3,62.8,30.00,SSW,200,5.0,6.9,59,0.00,CLR,OVC,0.00,WeatherDisplay:10.37,2013-08-11 17:55:00,
2013-08-11 13:56:00,78.3,62.8,30.00,SSW,200,4.5,6.9,59,0.00,CLR,OVC,0.00,WeatherDisplay:10.37,2013-08-11 17:56:00,
2013-08-11 13:57:00,78.3,61.8,30.00,South,183,7.3,7.3,57,0.00,CLR,OVC,0.00,WeatherDisplay:10.37,2013-08-11 17:57:00,
2013-08-11 13:59:00,78.3,62.3,30.00,SSW,208,3.6,6.0,58,0.00,CLR,OVC,0.00,WeatherDisplay:10.37,2013-08-11 17:59:00,
2013-08-11 14:01:00,78.3,62.8,30.00,WSW,256,6.8,9.2,59,0.00,CLR,OVC,0.00,WeatherDisplay:10.37,2013-08-11 18:01:00,
2013-08-11 14:02:00,78.3,62.3,30.00,WSW,252,6.7,9.2,58,0.00,CLR,OVC,0.00,WeatherDisplay:10.37,2013-08-11 18:02:00,
2013-08-11 14:03:00,78.3,63.7,30.00,WSW,252,5.2,6.9,61,0.00,CLR,OVC,0.00,WeatherDisplay:10.37,2013-08-11 18:03:00,
2013-08-11 14:05:00,78.3,62.8,30.00,SW,218,5.7,8.1,59,0.00,CLR,OVC,0.00,WeatherDisplay:10.37,2013-08-11 18:05:00,
2013-08-11 14:07:00,78.3,62.3,30.00,SW,223,3.7,7.0,58,0.00,CLR,OVC,0.00,WeatherDisplay:10.37,2013-08-11 18:07:00,
2013-08-11 14:08:00,78.3,63.3,30.00,South,183,5.3,8.1,60,0.00,CLR,OVC,0.00,WeatherDisplay:10.37,2013-08-11 18:08:00,
2013-08-11 14:09:00,78.4,62.4,30.00,South,188,4.0,8.1,58,0.00,CLR,OVC,0.00,WeatherDisplay:10.37,2013-08-11 18:09:00,
2013-08-11 14:10:00,78.3,62.8,30.00,South,188,3.0,4.6,59,0.00,CLR,OVC,0.00,WeatherDisplay:10.37,2013-08-11 18:10:00,
2013-08-11 14:12:00,78.4,62.9,30.00,South,191,2.4,3.5,59,0.00,CLR,OVC,0.00,WeatherDisplay:10.37,2013-08-11 18:12:00,
2013-08-11 14:13:00,78.4,62.9,30.00,South,191,2.2,3.5,59,0.00,CLR,OVC,0.00,WeatherDisplay:10.37,2013-08-11 18:13:00,
2013-08-11 14:15:00,78.4,61.9,30.00,SW,224,7.7,10.4,57,0.00,CLR,OVC,0.00,WeatherDisplay:10.37,2013-08-11 18:15:00,
2013-08-11 14:20:00,78.4,61.9,29.99,West,274,5.1,6.0,57,0.00,CLR,OVC,0.00,WeatherDisplay:10.37,2013-08-11 18:20:00,
2013-08-11 14:22:00,78.4,61.4,29.99,West,274,3.5,5.8,56,0.00,CLR,OVC,0.00,WeatherDisplay:10.37,2013-08-11 18:22:00,
2013-08-11 14:25:00,78.4,64.3,29.99,SSE,160,7.3,10.4,62,0.00,CLR,OVC,0.00,WeatherDisplay:10.37,2013-08-11 18:25:00,
2013-08-11 14:26:00,78.4,64.3,29.99,SSE,154,7.3,10.4,62,0.00,CLR,OVC,0.00,WeatherDisplay:10.37,2013-08-11 18:26:00,
2013-08-11 14:28:00,78.6,63.1,29.99,South,178,6.6,10.4,59,0.00,CLR,OVC,0.00,WeatherDisplay:10.37,2013-08-11 18:28:00,
2013-08-11 14:31:00,78.6,62.6,30.00,SSW,213,3.9,7.0,58,0.00,CLR,OVC,0.00,WeatherDisplay:10.37,2013-08-11 18:31:00,
2013-08-11 14:33:00,78.6,62.6,29.99,SW,231,6.2,8.1,58,0.00,CLR,OVC,0.00,WeatherDisplay:10.37,2013-08-11 18:33:00,
2013-08-11 14:34:00,78.6,62.6,29.99,SW,231,5.5,8.1,58,0.00,CLR,OVC,0.00,WeatherDisplay:10.37,2013-08-11 18:34:00,
2013-08-11 14:36:00,78.7,63.6,29.99,SSW,213,6.3,7.0,60,0.00,CLR,OVC,0.00,WeatherDisplay:10.37,2013-08-11 18:36:00,
2013-08-11 14:37:00,78.7,63.2,29.99,SW,214,6.7,9.2,59,0.00,CLR,OVC,0.00,WeatherDisplay:10.37,2013-08-11 18:37:00,
2013-08-11 14:39:00,78.9,63.8,29.99,SW,214,3.7,8.1,60,0.00,CLR,OVC,0.00,WeatherDisplay:10.37,2013-08-11 18:39:00,
2013-08-11 14:41:00,79.0,62.5,29.99,West,275,3.9,8.1,57,0.00,CLR,OVC,0.00,WeatherDisplay:10.37,2013-08-11 18:41:00,
2013-08-11 14:43:00,79.1,62.6,29.99,West,270,6.3,10.0,57,0.00,CLR,OVC,0.00,WeatherDisplay:10.37,2013-08-11 18:43:00,
2013-08-11 14:44:00,79.1,63.1,29.99,WSW,239,8.0,10.0,58,0.00,CLR,OVC,0.00,WeatherDisplay:10.37,2013-08-11 18:44:00,
2013-08-11 14:47:00,79.0,63.0,29.99,WSW,239,6.3,8.1,58,0.00,CLR,OVC,0.00,WeatherDisplay:10.37,2013-08-11 18:47:00,
2013-08-11 14:49:00,78.9,63.4,29.99,WSW,247,3.0,8.0,59,0.00,CLR,OVC,0.00,WeatherDisplay:10.37,2013-08-11 18:49:00,
2013-08-11 14:50:00,78.9,61.9,29.99,SW,236,3.7,6.0,56,0.00,CLR,OVC,0.00,WeatherDisplay:10.37,2013-08-11 18:50:00,
2013-08-11 14:52:00,78.8,61.3,29.99,SW,236,4.5,6.9,55,0.00,CLR,OVC,0.00,WeatherDisplay:10.37,2013-08-11 18:52:00,
2013-08-11 14:55:00,78.8,61.8,29.99,SW,236,1.8,4.0,56,0.00,CLR,OVC,0.00,WeatherDisplay:10.37,2013-08-11 18:55:00,
2013-08-11 14:57:00,79.0,61.5,29.99,SW,236,1.6,3.5,55,0.00,CLR,OVC,0.00,WeatherDisplay:10.37,2013-08-11 18:57:00,
2013-08-11 14:58:00,79.0,62.0,29.99,SW,236,1.3,3.5,56,0.00,CLR,OVC,0.00,WeatherDisplay:10.37,2013-08-11 18:58:00,
2013-08-11 15:00:00,79.4,63.8,29.98,South,188,2.6,7.0,59,0.00,CLR,OVC,0.00,WeatherDisplay:10.37,2013-08-11 19:00:00,
2013-08-11 15:02:00,79.6,62.5,29.98,South,174,1.8,6.9,56,0.00,CLR,OVC,0.00,WeatherDisplay:10.37,2013-08-11 19:02:00,
2013-08-11 15:03:00,79.7,62.6,29.98,South,174,0.9,3.5,56,0.00,CLR,OVC,0.00,WeatherDisplay:10.37,2013-08-11 19:03:00,
2013-08-11 15:08:00,80.1,63.0,29.98,WNW,291,2.5,3.5,56,0.00,CLR,OVC,0.00,WeatherDisplay:10.37,2013-08-11 19:08:00,
2013-08-11 15:10:00,80.1,62.0,29.98,WNW,291,2.1,4.6,54,0.00,CLR,OVC,0.00,WeatherDisplay:10.37,2013-08-11 19:10:00,
2013-08-11 15:13:00,80.3,63.2,29.98,South,185,4.9,6.9,56,0.00,CLR,OVC,0.00,WeatherDisplay:10.37,2013-08-11 19:13:00,
2013-08-11 15:15:00,80.5,64.9,29.98,South,177,5.0,6.9,59,0.00,CLR,OVC,0.00,WeatherDisplay:10.37,2013-08-11 19:15:00,
2013-08-11 15:19:00,80.6,64.9,29.98,South,178,1.5,3.5,59,0.00,CLR,OVC,0.00,WeatherDisplay:10.37,2013-08-11 19:19:00,
2013-08-11 15:21:00,80.7,63.5,29.98,South,178,2.1,4.0,56,0.00,CLR,OVC,0.00,WeatherDisplay:10.37,2013-08-11 19:21:00,
2013-08-11 15:24:00,80.6,63.0,29.98,SSW,196,3.0,5.0,55,0.00,CLR,OVC,0.00,WeatherDisplay:10.37,2013-08-11 19:24:00,
2013-08-11 15:25:00,80.5,62.8,29.98,West,259,3.0,3.5,55,0.00,CLR,OVC,0.00,WeatherDisplay:10.37,2013-08-11 19:25:00,
2013-08-11 15:26:00,80.5,64.9,29.98,SW,217,3.0,4.0,59,0.00,CLR,OVC,0.00,WeatherDisplay:10.37,2013-08-11 19:26:00,
2013-08-11 15:30:00,80.5,63.9,29.98,SW,219,6.2,8.1,57,0.00,CLR,OVC,0.00,WeatherDisplay:10.37,2013-08-11 19:30:00,
2013-08-11 15:31:00,80.5,63.9,29.98,SW,219,4.7,6.9,57,0.00,CLR,OVC,0.00,WeatherDisplay:10.37,2013-08-11 19:31:00,
2013-08-11 15:35:00,80.4,62.2,29.98,SW,228,3.4,6.9,54,0.00,CLR,OVC,0.00,WeatherDisplay:10.37,2013-08-11 19:35:00,
2013-08-11 15:37:00,80.4,63.3,29.98,SW,228,3.1,6.0,56,0.00,CLR,OVC,0.00,WeatherDisplay:10.37,2013-08-11 19:37:00,
2013-08-11 15:38:00,80.3,61.6,29.97,SW,228,3.7,6.9,53,0.00,CLR,OVC,0.00,WeatherDisplay:10.37,2013-08-11 19:38:00,
2013-08-11 15:41:00,80.3,62.7,29.97,SW,228,0.9,3.5,55,0.00,CLR,OVC,0.00,WeatherDisplay:10.37,2013-08-11 19:41:00,
2013-08-11 15:42:00,80.4,63.3,29.97,SW,228,1.4,3.5,56,0.00,CLR,OVC,0.00,WeatherDisplay:10.37,2013-08-11 19:42:00,
2013-08-11 15:43:00,80.5,63.4,29.97,SW,228,3.4,4.0,56,0.00,CLR,OVC,0.00,WeatherDisplay:10.37,2013-08-11 19:43:00,
2013-08-11 15:46:00,80.5,61.8,29.97,SW,228,1.3,3.5,53,0.00,CLR,OVC,0.00,WeatherDisplay:10.37,2013-08-11 19:46:00,
2013-08-11 15:47:00,80.5,62.3,29.97,SW,229,1.0,2.3,54,0.00,CLR,OVC,0.00,WeatherDisplay:10.37,2013-08-11 19:47:00,
2013-08-11 15:49:00,80.6,62.9,29.97,SW,228,3.1,5.0,55,0.00,CLR,OVC,0.00,WeatherDisplay:10.37,2013-08-11 19:49:00,
2013-08-11 15:51:00,80.7,62.0,29.97,SW,228,3.0,4.0,53,0.00,CLR,OVC,0.00,WeatherDisplay:10.37,2013-08-11 19:51:00,
2013-08-11 15:52:00,80.7,62.5,29.97,SW,228,3.0,3.5,54,0.00,CLR,OVC,0.00,WeatherDisplay:10.37,2013-08-11 19:52:00,
2013-08-11 15:54:00,80.7,63.0,29.97,SW,228,2.3,5.0,55,0.00,CLR,OVC,0.00,WeatherDisplay:10.37,2013-08-11 19:54:00,
2013-08-11 15:56:00,80.6,62.9,29.97,SW,228,4.7,5.8,55,0.00,CLR,OVC,0.00,WeatherDisplay:10.37,2013-08-11 19:56:00,
2013-08-11 15:57:00,80.6,64.0,29.97,SW,229,4.7,6.0,57,0.00,CLR,OVC,0.00,WeatherDisplay:10.37,2013-08-11 19:57:00,
2013-08-11 16:00:00,80.3,63.2,29.96,South,188,3.1,4.6,56,0.00,CLR,OVC,0.00,WeatherDisplay:10.37,2013-08-11 20:00:00,
2013-08-11 16:02:00,80.0,62.4,29.97,South,189,4.5,5.8,55,0.00,CLR,OVC,0.00,WeatherDisplay:10.37,2013-08-11 20:02:00,
2013-08-11 16:05:00,79.8,61.7,29.96,South,189,0.9,2.3,54,0.00,CLR,OVC,0.00,WeatherDisplay:10.37,2013-08-11 20:05:00,
2013-08-11 16:06:00,79.8,61.7,29.96,South,189,0.9,2.3,54,0.00,CLR,OVC,0.00,WeatherDisplay:10.37,2013-08-11 20:06:00,
2013-08-11 16:08:00,79.8,61.1,29.96,South,189,0.9,2.3,53,0.00,CLR,OVC,0.00,WeatherDisplay:10.37,2013-08-11 20:08:00,
2013-08-11 16:12:00,80.1,62.5,29.96,South,189,0.6,1.2,55,0.00,CLR,OVC,0.00,WeatherDisplay:10.37,2013-08-11 20:12:00,
2013-08-11 16:15:00,80.4,63.8,29.96,SW,218,3.8,5.8,57,0.00,CLR,OVC,0.00,WeatherDisplay:10.37,2013-08-11 20:15:00,
2013-08-11 16:17:00,80.4,63.3,29.96,SW,218,4.3,6.9,56,0.00,CLR,OVC,0.00,WeatherDisplay:10.37,2013-08-11 20:17:00,
2013-08-11 16:20:00,80.3,63.2,29.96,SW,218,3.9,4.6,56,0.00,CLR,OVC,0.00,WeatherDisplay:10.37,2013-08-11 20:20:00,
2013-08-11 16:22:00,80.2,63.6,29.97,SW,218,5.2,6.0,57,0.00,CLR,OVC,0.00,WeatherDisplay:10.37,2013-08-11 20:22:00,
2013-08-11 16:25:00,79.8,62.2,29.96,SW,219,4.3,6.9,55,0.00,CLR,OVC,0.00,WeatherDisplay:10.37,2013-08-11 20:25:00,
2013-08-11 16:26:00,79.7,62.6,29.96,SW,219,3.0,6.9,56,0.00,CLR,OVC,0.00,WeatherDisplay:10.37,2013-08-11 20:26:00,
2013-08-11 16:27:00,79.7,63.1,29.96,SW,218,2.4,4.6,57,0.00,CLR,OVC,0.00,WeatherDisplay:10.37,2013-08-11 20:27:00,
2013-08-11 16:28:00,79.7,63.1,29.96,SW,218,2.3,3.5,57,0.00,CLR,OVC,0.00,WeatherDisplay:10.37,2013-08-11 20:28:00,
2013-08-11 16:31:00,79.8,62.7,29.96,SW,219,2.6,3.5,56,0.00,CLR,OVC,0.00,WeatherDisplay:10.37,2013-08-11 20:31:00,
2013-08-11 16:32:00,79.9,61.8,29.96,SW,218,0.4,2.3,54,0.00,CLR,OVC,0.00,WeatherDisplay:10.37,2013-08-11 20:32:00,
2013-08-11 16:33:00,80.0,62.9,29.96,SW,218,1.8,5.0,56,0.00,CLR,OVC,0.00,WeatherDisplay:10.37,2013-08-11 20:33:00,
2013-08-11 16:37:00,80.2,63.6,29.96,SSW,210,5.4,8.1,57,0.00,CLR,OVC,0.00,WeatherDisplay:10.37,2013-08-11 20:37:00,
2013-08-11 16:38:00,80.2,63.6,29.96,SSW,210,5.1,8.1,57,0.00,CLR,OVC,0.00,WeatherDisplay:10.37,2013-08-11 20:38:00,
2013-08-11 16:42:00,80.0,63.4,29.96,SSW,210,2.1,6.0,57,0.00,CLR,OVC,0.00,WeatherDisplay:10.37,2013-08-11 20:42:00,
2013-08-11 16:44:00,80.0,63.9,29.96,South,190,7.9,11.5,58,0.00,CLR,OVC,0.00,WeatherDisplay:10.37,2013-08-11 20:44:00,
2013-08-11 16:48:00,79.8,63.7,29.96,South,184,5.1,7.0,58,0.00,CLR,OVC,0.00,WeatherDisplay:10.37,2013-08-11 20:48:00,
2013-08-11 16:49:00,79.8,63.7,29.96,South,188,5.5,5.8,58,0.00,CLR,OVC,0.00,WeatherDisplay:10.37,2013-08-11 20:49:00,
2013-08-11 16:51:00,79.7,64.1,29.96,South,189,2.9,4.6,59,0.00,CLR,OVC,0.00,WeatherDisplay:10.37,2013-08-11 20:51:00,
2013-08-11 16:54:00,79.7,62.1,29.96,South,189,0.4,2.3,55,0.00,CLR,OVC,0.00,WeatherDisplay:10.37,2013-08-11 20:54:00,
2013-08-11 16:58:00,80.1,62.5,29.96,South,189,0.8,2.0,55,0.00,CLR,OVC,0.00,WeatherDisplay:10.37,2013-08-11 20:58:00,
2013-08-11 16:59:00,80.2,62.6,29.96,South,189,2.0,3.5,55,0.00,CLR,OVC,0.00,WeatherDisplay:10.37,2013-08-11 20:59:00,
2013-08-11 17:00:00,80.3,63.2,29.96,South,189,2.6,3.5,56,0.00,CLR,OVC,0.00,WeatherDisplay:10.37,2013-08-11 21:00:00,
2013-08-11 17:04:00,80.5,63.4,29.96,South,189,2.2,3.5,56,0.00,CLR,OVC,0.00,WeatherDisplay:10.37,2013-08-11 21:04:00,
2013-08-11 17:05:00,80.5,62.8,29.96,South,189,1.5,2.3,55,0.00,CLR,OVC,0.00,WeatherDisplay:10.37,2013-08-11 21:05:00,
2013-08-11 17:09:00,80.7,64.5,29.96,South,189,2.0,4.0,58,0.00,CLR,OVC,0.00,WeatherDisplay:10.37,2013-08-11 21:09:00,
2013-08-11 17:10:00,80.7,63.5,29.96,South,189,2.7,3.5,56,0.00,CLR,OVC,0.00,WeatherDisplay:10.37,2013-08-11 21:10:00,
2013-08-11 17:11:00,80.6,63.5,29.96,South,189,3.8,5.8,56,0.00,CLR,OVC,0.00,WeatherDisplay:10.37,2013-08-11 21:11:00,
2013-08-11 17:14:00,80.5,63.9,29.96,South,189,2.9,3.5,57,0.00,CLR,OVC,0.00,WeatherDisplay:10.37,2013-08-11 21:14:00,
2013-08-11 17:15:00,80.5,62.8,29.96,South,189,2.5,3.5,55,0.00,CLR,OVC,0.00,WeatherDisplay:10.37,2013-08-11 21:15:00,
2013-08-11 17:16:00,80.4,62.8,29.96,South,189,1.9,3.5,55,0.00,CLR,OVC,0.00,WeatherDisplay:10.37,2013-08-11 21:16:00,
2013-08-11 17:19:00,80.4,62.8,29.96,South,189,2.0,3.0,55,0.00,CLR,OVC,0.00,WeatherDisplay:10.37,2013-08-11 21:19:00,
2013-08-11 17:20:00,80.4,62.2,29.96,South,189,2.1,3.5,54,0.00,CLR,OVC,0.00,WeatherDisplay:10.37,2013-08-11 21:20:00,
2013-08-11 17:21:00,80.4,62.8,29.96,South,189,1.3,3.5,55,0.00,CLR,OVC,0.00,WeatherDisplay:10.37,2013-08-11 21:21:00,
2013-08-11 17:24:00,80.2,62.6,29.95,South,189,2.1,3.5,55,0.00,CLR,OVC,0.00,WeatherDisplay:10.37,2013-08-11 21:24:00,
2013-08-11 17:25:00,80.2,62.6,29.95,South,189,1.4,3.5,55,0.00,CLR,OVC,0.00,WeatherDisplay:10.37,2013-08-11 21:25:00,
2013-08-11 17:26:00,80.3,63.7,29.96,South,189,1.5,2.3,57,0.00,CLR,OVC,0.00,WeatherDisplay:10.37,2013-08-11 21:26:00,
2013-08-11 17:29:00,80.4,64.3,29.95,South,189,2.6,4.6,58,0.00,CLR,OVC,0.00,WeatherDisplay:10.37,2013-08-11 21:29:00,
2013-08-11 17:30:00,80.5,64.4,29.95,South,189,3.1,6.0,58,0.00,CLR,OVC,0.00,WeatherDisplay:10.37,2013-08-11 21:30:00,
2013-08-11 17:32:00,80.4,62.8,29.95,South,178,3.7,6.9,55,0.00,CLR,OVC,0.00,WeatherDisplay:10.37,2013-08-11 21:32:00,
2013-08-11 17:33:00,80.4,63.3,29.95,South,177,3.9,5.0,56,0.00,CLR,OVC,0.00,WeatherDisplay:10.37,2013-08-11 21:33:00,
2013-08-11 17:35:00,80.3,63.7,29.95,South,176,3.0,3.5,57,0.00,CLR,OVC,0.00,WeatherDisplay:10.37,2013-08-11 21:35:00,
2013-08-11 17:38:00,80.3,62.7,29.95,South,176,2.9,4.0,55,0.00,CLR,OVC,0.00,WeatherDisplay:10.37,2013-08-11 21:38:00,
2013-08-11 17:41:00,80.0,62.4,29.96,South,176,1.8,3.5,55,0.00,CLR,OVC,0.00,WeatherDisplay:10.37,2013-08-11 21:41:00,
2013-08-11 17:43:00,79.9,62.8,29.96,South,176,1.2,2.3,56,0.00,CLR,OVC,0.00,WeatherDisplay:10.37,2013-08-11 21:43:00,
2013-08-11 17:44:00,79.9,61.8,29.96,South,176,1.0,2.3,54,0.00,CLR,OVC,0.00,WeatherDisplay:10.37,2013-08-11 21:44:00,
2013-08-11 17:46:00,79.9,62.3,29.95,South,176,0.9,2.3,55,0.00,CLR,OVC,0.00,WeatherDisplay:10.37,2013-08-11 21:46:00,
2013-08-11 17:47:00,80.1,62.0,29.95,South,176,1.5,2.3,54,0.00,CLR,OVC,0.00,WeatherDisplay:10.37,2013-08-11 21:47:00,
2013-08-11 17:49:00,80.2,62.6,29.95,South,176,0.2,2.3,55,0.00,CLR,OVC,0.00,WeatherDisplay:10.37,2013-08-11 21:49:00,
2013-08-11 17:51:00,80.4,62.8,29.95,South,176,3.3,4.0,55,0.00,CLR,OVC,0.00,WeatherDisplay:10.37,2013-08-11 21:51:00,
2013-08-11 17:52:00,80.4,62.8,29.95,South,176,2.0,4.6,55,0.00,CLR,OVC,0.00,WeatherDisplay:10.37,2013-08-11 21:52:00,
2013-08-11 17:54:00,80.5,62.8,29.95,South,176,0.1,1.2,55,0.00,CLR,OVC,0.00,WeatherDisplay:10.37,2013-08-11 21:54:00,
2013-08-11 17:56:00,80.6,62.4,29.95,South,176,1.4,2.3,54,0.00,CLR,OVC,0.00,WeatherDisplay:10.37,2013-08-11 21:56:00,
2013-08-11 17:57:00,80.7,63.5,29.95,South,176,1.9,3.5,56,0.00,CLR,OVC,0.00,WeatherDisplay:10.37,2013-08-11 21:57:00,
2013-08-11 17:59:00,80.8,62.1,29.95,South,176,1.8,3.5,53,0.00,CLR,OVC,0.00,WeatherDisplay:10.37,2013-08-11 21:59:00,
2013-08-11 18:01:00,80.9,62.7,29.94,South,176,1.3,3.5,54,0.00,CLR,OVC,0.00,WeatherDisplay:10.37,2013-08-11 22:01:00,
2013-08-11 18:03:00,81.0,62.3,29.94,South,176,1.2,3.5,53,0.00,CLR,OVC,0.00,WeatherDisplay:10.37,2013-08-11 22:03:00,
2013-08-11 18:04:00,81.1,62.9,29.94,South,176,1.2,2.3,54,0.00,CLR,OVC,0.00,WeatherDisplay:10.37,2013-08-11 22:04:00,
2013-08-11 18:05:00,81.2,63.0,29.95,South,176,1.6,3.5,54,0.00,CLR,OVC,0.00,WeatherDisplay:10.37,2013-08-11 22:05:00,
2013-08-11 18:07:00,81.4,64.2,29.95,South,176,0.9,2.3,56,0.00,CLR,OVC,0.00,WeatherDisplay:10.37,2013-08-11 22:07:00,
2013-08-11 18:09:00,81.5,64.8,29.94,South,176,1.9,3.5,57,0.00,CLR,OVC,0.00,WeatherDisplay:10.37,2013-08-11 22:09:00,
2013-08-11 18:10:00,81.7,64.0,29.94,South,176,1.3,3.5,55,0.00,CLR,OVC,0.00,WeatherDisplay:10.37,2013-08-11 22:10:00,
2013-08-11 18:12:00,81.8,64.1,29.94,South,176,1.5,2.3,55,0.00,CLR,OVC,0.00,WeatherDisplay:10.37,2013-08-11 22:12:00,
2013-08-11 18:14:00,81.9,63.6,29.94,South,176,0.9,2.3,54,0.00,CLR,OVC,0.00,WeatherDisplay:10.37,2013-08-11 22:14:00,
2013-08-11 18:16:00,81.9,63.1,29.94,South,176,0.4,2.3,53,0.00,CLR,OVC,0.00,WeatherDisplay:10.37,2013-08-11 22:16:00,
2013-08-11 18:17:00,82.0,63.2,29.94,South,176,0.3,1.2,53,0.00,CLR,OVC,0.00,WeatherDisplay:10.37,2013-08-11 22:17:00,
2013-08-11 18:20:00,82.0,63.2,29.94,South,176,0.6,1.2,53,0.00,CLR,OVC,0.00,WeatherDisplay:10.37,2013-08-11 22:20:00,
2013-08-11 18:21:00,82.0,63.7,29.94,South,176,1.0,2.3,54,0.00,CLR,OVC,0.00,WeatherDisplay:10.37,2013-08-11 22:21:00,
2013-08-11 18:22:00,82.0,64.2,29.95,South,176,1.4,2.3,55,0.00,CLR,OVC,0.00,WeatherDisplay:10.37,2013-08-11 22:22:00,
2013-08-11 18:25:00,81.9,64.1,29.94,South,176,1.5,3.5,55,0.00,CLR,OVC,0.00,WeatherDisplay:10.37,2013-08-11 22:25:00,
2013-08-11 18:27:00,81.9,64.7,29.94,South,176,2.4,3.5,56,0.00,CLR,OVC,0.00,WeatherDisplay:10.37,2013-08-11 22:27:00,
2013-08-11 18:28:00,81.8,64.6,29.95,South,176,2.0,3.5,56,0.00,CLR,OVC,0.00,WeatherDisplay:10.37,2013-08-11 22:28:00,
2013-08-11 18:32:00,81.4,64.7,29.95,South,176,1.2,3.5,57,0.00,CLR,OVC,0.00,WeatherDisplay:10.37,2013-08-11 22:32:00,
2013-08-11 18:33:00,81.3,64.6,29.94,South,176,0.9,2.3,57,0.00,CLR,OVC,0.00,WeatherDisplay:10.37,2013-08-11 22:33:00,
2013-08-11 18:39:00,80.9,65.7,29.94,South,176,0.9,2.3,60,0.00,CLR,OVC,0.00,WeatherDisplay:10.37,2013-08-11 22:39:00,
2013-08-11 18:44:00,80.8,65.6,29.94,South,176,1.4,2.3,60,0.00,CLR,OVC,0.00,WeatherDisplay:10.37,2013-08-11 22:44:00,
2013-08-11 18:45:00,80.8,65.6,29.94,South,176,1.1,2.3,60,0.00,CLR,OVC,0.00,WeatherDisplay:10.37,2013-08-11 22:45:00,
2013-08-11 18:49:00,80.6,65.9,29.95,South,176,1.2,2.3,61,0.00,CLR,OVC,0.00,WeatherDisplay:10.37,2013-08-11 22:49:00,
2013-08-11 18:51:00,80.5,66.3,29.94,South,176,0.7,2.3,62,0.00,CLR,OVC,0.00,WeatherDisplay:10.37,2013-08-11 22:51:00,
2013-08-11 18:54:00,80.3,66.6,29.94,South,176,0.9,1.2,63,0.00,CLR,OVC,0.00,WeatherDisplay:10.37,2013-08-11 22:54:00,
2013-08-11 18:55:00,80.3,66.6,29.95,South,176,0.9,1.2,63,0.00,CLR,OVC,0.00,WeatherDisplay:10.37,2013-08-11 22:55:00,
2013-08-11 18:56:00,80.1,66.4,29.94,South,176,0.5,1.2,63,0.00,CLR,OVC,0.00,WeatherDisplay:10.37,2013-08-11 22:56:00,
2013-08-11 18:57:00,80.1,66.8,29.94,South,176,0.1,1.2,64,0.00,CLR,OVC,0.00,WeatherDisplay:10.37,2013-08-11 22:57:00,
2013-08-11 18:59:00,79.8,67.4,29.95,South,176,0.3,1.2,66,0.00,CLR,OVC,0.00,WeatherDisplay:10.37,2013-08-11 22:59:00,
2013-08-11 19:01:00,79.7,67.3,29.95,South,176,0.0,1.0,66,0.00,CLR,OVC,0.00,WeatherDisplay:10.37,2013-08-11 23:01:00,
2013-08-11 19:02:00,79.5,67.1,29.94,South,176,1.4,2.3,66,0.00,CLR,OVC,0.00,WeatherDisplay:10.37,2013-08-11 23:02:00,
2013-08-11 19:05:00,79.2,66.9,29.94,South,176,1.9,3.5,66,0.00,CLR,OVC,0.00,WeatherDisplay:10.37,2013-08-11 23:05:00,
2013-08-11 19:06:00,79.2,66.9,29.94,South,176,1.8,3.5,66,0.00,CLR,OVC,0.00,WeatherDisplay:10.37,2013-08-11 23:06:00,
2013-08-11 19:07:00,79.0,66.7,29.94,South,176,1.7,3.5,66,0.00,CLR,OVC,0.00,WeatherDisplay:10.37,2013-08-11 23:07:00,
2013-08-11 19:08:00,78.9,66.6,29.94,South,176,1.6,3.5,66,0.00,CLR,OVC,0.00,WeatherDisplay:10.37,2013-08-11 23:08:00,
2013-08-11 19:11:00,78.6,66.7,29.94,South,176,2.1,3.5,67,0.00,CLR,OVC,0.00,WeatherDisplay:10.37,2013-08-11 23:11:00,
2013-08-11 19:12:00,78.4,67.0,29.94,South,176,2.3,3.5,68,0.00,CLR,OVC,0.00,WeatherDisplay:10.37,2013-08-11 23:12:00,
2013-08-11 19:13:00,78.3,66.9,29.94,South,176,2.0,3.5,68,0.00,CLR,OVC,0.00,WeatherDisplay:10.37,2013-08-11 23:13:00,
2013-08-11 19:14:00,78.2,66.3,29.94,South,176,2.0,3.5,67,0.00,CLR,OVC,0.00,WeatherDisplay:10.37,2013-08-11 23:14:00,
2013-08-11 19:16:00,77.9,66.9,29.94,South,176,2.4,3.5,69,0.00,CLR,OVC,0.00,WeatherDisplay:10.37,2013-08-11 23:16:00,
2013-08-11 19:17:00,77.7,66.3,29.94,South,176,2.6,3.5,68,0.00,CLR,OVC,0.00,WeatherDisplay:10.37,2013-08-11 23:17:00,
2013-08-11 19:18:00,77.5,66.1,29.94,South,176,2.3,3.5,68,0.00,CLR,OVC,0.00,WeatherDisplay:10.37,2013-08-11 23:18:00,
2013-08-11 19:19:00,77.4,66.0,29.94,South,176,2.2,3.5,68,0.00,CLR,OVC,0.00,WeatherDisplay:10.37,2013-08-11 23:19:00,
2013-08-11 19:21:00,77.0,66.5,29.95,South,176,2.7,3.5,70,0.00,CLR,OVC,0.00,WeatherDisplay:10.37,2013-08-11 23:21:00,
2013-08-11 19:23:00,76.7,66.6,29.95,South,176,1.3,3.5,71,0.00,CLR,OVC,0.00,WeatherDisplay:10.37,2013-08-11 23:23:00,
2013-08-11 19:24:00,76.6,66.5,29.95,South,176,0.1,2.3,71,0.00,CLR,OVC,0.00,WeatherDisplay:10.37,2013-08-11 23:24:00,
2013-08-11 19:28:00,75.8,65.7,29.95,South,176,0.1,1.2,71,0.00,CLR,OVC,0.00,WeatherDisplay:10.37,2013-08-11 23:28:00,
2013-08-11 19:29:00,75.7,65.2,29.95,South,176,0.1,1.2,70,0.00,CLR,OVC,0.00,WeatherDisplay:10.37,2013-08-11 23:29:00,
2013-08-11 19:34:00,75.1,65.9,29.95,South,176,2.4,3.5,73,0.00,CLR,OVC,0.00,WeatherDisplay:10.37,2013-08-11 23:34:00,
2013-08-11 19:35:00,75.0,65.8,29.94,South,176,2.4,3.5,73,0.00,CLR,OVC,0.00,WeatherDisplay:10.37,2013-08-11 23:35:00,
2013-08-11 19:36:00,74.7,65.9,29.95,South,176,2.7,3.5,74,0.00,CLR,OVC,0.00,WeatherDisplay:10.37,2013-08-11 23:36:00,
2013-08-11 19:41:00,74.0,66.0,29.95,South,176,2.1,3.5,76,0.00,CLR,OVC,0.00,WeatherDisplay:10.37,2013-08-11 23:41:00,
2013-08-11 19:42:00,73.7,65.7,29.95,South,176,2.4,3.5,76,0.00,CLR,OVC,0.00,WeatherDisplay:10.37,2013-08-11 23:42:00,
2013-08-11 19:46:00,73.2,65.6,29.95,South,176,2.6,3.5,77,0.00,CLR,OVC,0.00,WeatherDisplay:10.37,2013-08-11 23:46:00,
2013-08-11 19:47:00,73.1,65.5,29.95,South,176,2.6,3.5,77,0.00,CLR,OVC,0.00,WeatherDisplay:10.37,2013-08-11 23:47:00,
2013-08-11 19:48:00,72.7,65.1,29.95,South,176,2.7,3.5,77,0.00,CLR,OVC,0.00,WeatherDisplay:10.37,2013-08-11 23:48:00,
2013-08-11 19:51:00,72.4,64.8,29.95,South,176,3.3,4.0,77,0.00,CLR,OVC,0.00,WeatherDisplay:10.37,2013-08-11 23:51:00,
2013-08-11 19:53:00,72.1,64.5,29.95,South,176,3.6,4.0,77,0.00,CLR,OVC,0.00,WeatherDisplay:10.37,2013-08-11 23:53:00,
2013-08-11 19:54:00,72.0,64.8,29.95,South,176,3.2,3.5,78,0.00,CLR,OVC,0.00,WeatherDisplay:10.37,2013-08-11 23:54:00,
2013-08-11 19:57:00,71.7,64.5,29.95,South,176,2.6,3.5,78,0.00,CLR,OVC,0.00,WeatherDisplay:10.37,2013-08-11 23:57:00,
2013-08-11 19:58:00,71.6,64.7,29.95,South,176,2.8,3.5,79,0.00,CLR,OVC,0.00,WeatherDisplay:10.37,2013-08-11 23:58:00,
2013-08-11 19:59:00,71.5,64.6,29.95,South,176,3.3,4.0,79,0.00,CLR,OVC,0.00,WeatherDisplay:10.37,2013-08-11 23:59:00,
2013-08-11 20:02:00,71.3,64.8,29.95,South,176,3.1,3.5,80,0.00,CLR,OVC,0.00,WeatherDisplay:10.37,2013-08-12 00:02:00,
2013-08-11 20:03:00,71.1,64.6,29.95,South,176,1.8,3.5,80,0.00,CLR,OVC,0.00,WeatherDisplay:10.37,2013-08-12 00:03:00,
2013-08-11 20:04:00,71.0,64.5,29.95,South,176,0.1,2.3,80,0.00,CLR,OVC,0.00,WeatherDisplay:10.37,2013-08-12 00:04:00,
2013-08-11 20:07:00,70.6,64.5,29.95,South,176,1.5,2.3,81,0.00,CLR,OVC,0.00,WeatherDisplay:10.37,2013-08-12 00:07:00,
2013-08-11 20:09:00,70.5,64.4,29.95,South,176,1.7,2.3,81,0.00,CLR,OVC,0.00,WeatherDisplay:10.37,2013-08-12 00:09:00,
2013-08-11 20:10:00,70.3,64.5,29.95,South,176,1.9,3.0,82,0.00,CLR,OVC,0.00,WeatherDisplay:10.37,2013-08-12 00:10:00,
2013-08-11 20:12:00,70.1,64.3,29.95,South,176,1.5,3.5,82,0.00,CLR,OVC,0.00,WeatherDisplay:10.37,2013-08-12 00:12:00,
2013-08-11 20:14:00,70.0,64.6,29.95,South,176,0.7,2.3,83,0.00,CLR,OVC,0.00,WeatherDisplay:10.37,2013-08-12 00:14:00,
2013-08-11 20:15:00,69.8,64.4,29.95,South,176,0.6,2.3,83,0.00,CLR,OVC,0.00,WeatherDisplay:10.37,2013-08-12 00:15:00,
2013-08-11 20:17:00,69.6,64.2,29.95,South,176,0.8,2.3,83,0.00,CLR,OVC,0.00,WeatherDisplay:10.37,2013-08-12 00:17:00,
2013-08-11 20:19:00,69.5,64.1,29.95,South,176,0.0,1.2,83,0.00,CLR,OVC,0.00,WeatherDisplay:10.37,2013-08-12 00:19:00,
2013-08-11 20:20:00,69.4,64.0,29.95,South,176,2.4,3.5,83,0.00,CLR,OVC,0.00,WeatherDisplay:10.37,2013-08-12 00:20:00,
2013-08-11 20:23:00,69.2,63.8,29.95,South,176,2.0,3.5,83,0.00,CLR,OVC,0.00,WeatherDisplay:10.37,2013-08-12 00:23:00,
2013-08-11 20:24:00,69.1,63.7,29.95,South,176,0.6,3.5,83,0.00,CLR,OVC,0.00,WeatherDisplay:10.37,2013-08-12 00:24:00,
2013-08-11 20:26:00,69.0,63.6,29.96,South,176,2.0,4.0,83,0.00,CLR,OVC,0.00,WeatherDisplay:10.37,2013-08-12 00:26:00,
2013-08-11 20:30:00,68.7,63.3,29.96,South,176,0.9,3.5,83,0.00,CLR,OVC,0.00,WeatherDisplay:10.37,2013-08-12 00:30:00,
2013-08-11 20:31:00,68.6,63.6,29.96,South,176,0.3,1.2,84,0.00,CLR,OVC,0.00,WeatherDisplay:10.37,2013-08-12 00:31:00,
2013-08-11 20:35:00,68.4,63.4,29.96,South,176,1.3,3.0,84,0.00,CLR,OVC,0.00,WeatherDisplay:10.37,2013-08-12 00:35:00,
2013-08-11 20:36:00,68.4,63.4,29.96,South,176,1.4,3.0,84,0.00,CLR,OVC,0.00,WeatherDisplay:10.37,2013-08-12 00:36:00,
2013-08-11 20:37:00,68.3,63.3,29.95,South,176,3.1,4.0,84,0.00,CLR,OVC,0.00,WeatherDisplay:10.37,2013-08-12 00:37:00,
2013-08-11 20:40:00,68.1,63.1,29.96,South,176,1.2,3.5,84,0.00,CLR,OVC,0.00,WeatherDisplay:10.37,2013-08-12 00:40:00,
2013-08-11 20:41:00,68.1,63.1,29.96,South,176,1.1,3.5,84,0.00,CLR,OVC,0.00,WeatherDisplay:10.37,2013-08-12 00:41:00,
2013-08-11 20:42:00,68.0,63.0,29.96,South,176,1.4,2.3,84,0.00,CLR,OVC,0.00,WeatherDisplay:10.37,2013-08-12 00:42:00,
2013-08-11 20:43:00,68.0,63.0,29.96,South,176,1.6,2.3,84,0.00,CLR,OVC,0.00,WeatherDisplay:10.37,2013-08-12 00:43:00,
2013-08-11 20:46:00,67.9,62.9,29.96,South,176,4.0,4.6,84,0.00,CLR,OVC,0.00,WeatherDisplay:10.37,2013-08-12 00:46:00,
2013-08-11 20:47:00,67.9,62.9,29.96,South,176,3.3,3.5,84,0.00,CLR,OVC,0.00,WeatherDisplay:10.37,2013-08-12 00:47:00,
2013-08-11 20:48:00,67.8,62.8,29.96,South,176,2.5,3.5,84,0.00,CLR,OVC,0.00,WeatherDisplay:10.37,2013-08-12 00:48:00,
2013-08-11 20:51:00,67.7,62.7,29.96,South,176,3.2,4.6,84,0.00,CLR,OVC,0.00,WeatherDisplay:10.37,2013-08-12 00:51:00,
2013-08-11 20:52:00,67.7,62.7,29.96,South,176,3.6,3.6,84,0.00,CLR,OVC,0.00,WeatherDisplay:10.37,2013-08-12 00:52:00,
2013-08-11 20:53:00,67.6,62.6,29.96,South,176,3.0,3.5,84,0.00,CLR,OVC,0.00,WeatherDisplay:10.37,2013-08-12 00:53:00,
2013-08-11 20:57:00,67.5,62.8,29.96,South,176,2.8,3.5,85,0.00,CLR,OVC,0.00,WeatherDisplay:10.37,2013-08-12 00:57:00,
2013-08-11 20:59:00,67.5,62.8,29.97,South,176,3.0,3.5,85,0.00,CLR,OVC,0.00,WeatherDisplay:10.37,2013-08-12 00:59:00,
2013-08-11 21:02:00,67.3,63.0,29.97,South,176,3.3,4.6,86,0.00,CLR,OVC,0.00,WeatherDisplay:10.37,2013-08-12 01:02:00,
2013-08-11 21:04:00,67.3,62.6,29.97,South,176,2.7,3.5,85,0.00,CLR,OVC,0.00,WeatherDisplay:10.37,2013-08-12 01:04:00,
2013-08-11 21:05:00,67.2,62.9,29.97,South,176,2.8,4.0,86,0.00,CLR,OVC,0.00,WeatherDisplay:10.37,2013-08-12 01:05:00,
2013-08-11 21:08:00,67.2,62.9,29.97,South,176,4.2,5.0,86,0.00,CLR,OVC,0.00,WeatherDisplay:10.37,2013-08-12 01:08:00,
2013-08-11 21:09:00,67.1,62.8,29.97,South,176,4.1,4.6,86,0.00,CLR,OVC,0.00,WeatherDisplay:10.37,2013-08-12 01:09:00,
2013-08-11 21:11:00,67.1,62.8,29.97,South,176,2.0,3.5,86,0.00,CLR,OVC,0.00,WeatherDisplay:10.37,2013-08-12 01:11:00,
2013-08-11 21:14:00,67.1,62.8,29.97,South,176,1.8,3.5,86,0.00,CLR,OVC,0.00,WeatherDisplay:10.37,2013-08-12 01:14:00,
2013-08-11 21:15:00,67.1,62.8,29.97,South,176,2.5,3.5,86,0.00,CLR,OVC,0.00,WeatherDisplay:10.37,2013-08-12 01:15:00,
2013-08-11 21:19:00,67.3,62.6,29.97,South,176,2.1,3.5,85,0.00,CLR,OVC,0.00,WeatherDisplay:10.37,2013-08-12 01:19:00,
2013-08-11 21:20:00,67.4,62.7,29.97,South,176,2.1,3.5,85,0.00,CLR,OVC,0.00,WeatherDisplay:10.37,2013-08-12 01:20:00,
2013-08-11 21:25:00,67.4,62.4,29.97,ESE,121,4.8,5.8,84,0.00,CLR,OVC,0.00,WeatherDisplay:10.37,2013-08-12 01:25:00,
2013-08-11 21:26:00,67.4,62.4,29.97,ESE,120,4.6,6.9,84,0.00,CLR,OVC,0.00,WeatherDisplay:10.37,2013-08-12 01:26:00,
2013-08-11 21:31:00,68.0,61.9,29.97,ESE,114,2.3,3.5,81,0.00,CLR,OVC,0.00,WeatherDisplay:10.37,2013-08-12 01:31:00,
2013-08-11 21:32:00,68.2,62.1,29.97,ESE,114,3.3,3.5,81,0.00,CLR,OVC,0.00,WeatherDisplay:10.37,2013-08-12 01:32:00,
2013-08-11 21:33:00,68.2,62.1,29.97,ESE,114,3.2,3.5,81,0.00,CLR,OVC,0.00,WeatherDisplay:10.37,2013-08-12 01:33:00,
2013-08-11 21:37:00,68.4,62.0,29.97,ESE,115,2.6,4.6,80,0.00,CLR,OVC,0.00,WeatherDisplay:10.37,2013-08-12 01:37:00,
2013-08-11 21:39:00,68.4,62.0,29.97,ESE,114,1.4,2.3,80,0.00,CLR,OVC,0.00,WeatherDisplay:10.37,2013-08-12 01:39:00,
2013-08-11 21:43:00,68.4,61.6,29.97,ESE,114,2.5,3.5,79,0.00,CLR,OVC,0.00,WeatherDisplay:10.37,2013-08-12 01:43:00,
2013-08-11 21:44:00,68.4,61.6,29.97,ESE,114,2.5,3.5,79,0.00,CLR,OVC,0.00,WeatherDisplay:10.37,2013-08-12 01:44:00,
2013-08-11 21:49:00,68.3,61.2,29.97,ESE,114,3.0,4.0,78,0.00,CLR,OVC,0.00,WeatherDisplay:10.37,2013-08-12 01:49:00,
2013-08-11 21:50:00,68.3,60.8,29.96,ESE,114,2.9,3.5,77,0.00,CLR,OVC,0.00,WeatherDisplay:10.37,2013-08-12 01:50:00,
2013-08-11 21:55:00,68.3,61.5,29.97,ESE,114,0.0,0.0,79,0.00,CLR,OVC,0.00,WeatherDisplay:10.37,2013-08-12 01:55:00,
2013-08-11 21:56:00,68.3,61.5,29.97,ESE,114,0.0,0.0,79,0.00,CLR,OVC,0.00,WeatherDisplay:10.37,2013-08-12 01:56:00,
2013-08-11 21:57:00,68.2,61.8,29.97,ESE,114,0.0,0.0,80,0.00,CLR,OVC,0.00,WeatherDisplay:10.37,2013-08-12 01:57:00,
2013-08-11 22:01:00,67.9,61.9,29.97,ESE,114,0.0,0.0,81,0.00,CLR,OVC,0.00,WeatherDisplay:10.37,2013-08-12 02:01:00,
2013-08-11 22:02:00,67.7,62.0,29.97,ESE,114,0.0,0.0,82,0.00,CLR,OVC,0.00,WeatherDisplay:10.37,2013-08-12 02:02:00,
2013-08-11 22:03:00,67.7,62.3,29.97,ESE,114,0.0,0.0,83,0.00,CLR,OVC,0.00,WeatherDisplay:10.37,2013-08-12 02:03:00,
2013-08-11 22:06:00,67.4,62.1,29.97,ESE,114,0.5,1.2,83,0.00,CLR,OVC,0.00,WeatherDisplay:10.37,2013-08-12 02:06:00,
2013-08-11 22:07:00,67.3,62.0,29.97,ESE,114,0.9,2.3,83,0.00,CLR,OVC,0.00,WeatherDisplay:10.37,2013-08-12 02:07:00,
2013-08-11 22:09:00,67.0,62.0,29.97,ESE,114,0.0,0.0,84,0.00,CLR,OVC,0.00,WeatherDisplay:10.37,2013-08-12 02:09:00,
2013-08-11 22:13:00,66.3,62.0,29.97,ESE,114,2.2,3.5,86,0.00,CLR,OVC,0.00,WeatherDisplay:10.37,2013-08-12 02:13:00,
2013-08-11 22:14:00,66.1,61.8,29.97,ESE,114,1.5,3.5,86,0.00,CLR,OVC,0.00,WeatherDisplay:10.37,2013-08-12 02:14:00,
2013-08-11 22:18:00,65.7,62.0,29.97,ESE,114,0.0,1.2,88,0.00,CLR,OVC,0.00,WeatherDisplay:10.37,2013-08-12 02:18:00,
2013-08-11 22:19:00,65.6,61.9,29.97,ESE,114,0.0,0.0,88,0.00,CLR,OVC,0.00,WeatherDisplay:10.37,2013-08-12 02:19:00,
2013-08-11 22:22:00,65.3,61.7,29.97,ESE,114,1.6,2.3,88,0.00,CLR,OVC,0.00,WeatherDisplay:10.37,2013-08-12 02:22:00,
2013-08-11 22:24:00,65.1,61.8,29.97,ESE,114,1.4,3.5,89,0.00,CLR,OVC,0.00,WeatherDisplay:10.37,2013-08-12 02:24:00,
2013-08-11 22:28:00,64.7,61.4,29.97,ESE,114,1.7,2.3,89,0.00,CLR,OVC,0.00,WeatherDisplay:10.37,2013-08-12 02:28:00,
2013-08-11 22:29:00,64.7,61.4,29.98,ESE,115,1.4,2.3,89,0.00,CLR,OVC,0.00,WeatherDisplay:10.37,2013-08-12 02:29:00,
2013-08-11 22:30:00,64.6,61.3,29.98,ESE,114,0.4,2.3,89,0.00,CLR,OVC,0.00,WeatherDisplay:10.37,2013-08-12 02:30:00,
2013-08-11 22:33:00,64.4,61.1,29.97,ESE,114,0.5,2.3,89,0.00,CLR,OVC,0.00,WeatherDisplay:10.37,2013-08-12 02:33:00,
2013-08-11 22:34:00,64.4,61.4,29.97,ESE,114,0.0,0.0,90,0.00,CLR,OVC,0.00,WeatherDisplay:10.37,2013-08-12 02:34:00,
2013-08-11 22:36:00,64.3,61.3,29.98,ESE,114,0.0,0.0,90,0.00,CLR,OVC,0.00,WeatherDisplay:10.37,2013-08-12 02:36:00,
2013-08-11 22:38:00,64.3,61.3,29.97,ESE,114,0.0,0.0,90,0.00,CLR,OVC,0.00,WeatherDisplay:10.37,2013-08-12 02:38:00,
2013-08-11 22:41:00,64.2,61.2,29.98,ESE,114,1.3,2.3,90,0.00,CLR,OVC,0.00,WeatherDisplay:10.37,2013-08-12 02:41:00,
2013-08-11 22:44:00,64.2,61.2,29.98,ESE,114,0.0,0.0,90,0.00,CLR,OVC,0.00,WeatherDisplay:10.37,2013-08-12 02:44:00,
2013-08-11 22:46:00,64.2,61.5,29.98,ESE,115,0.0,0.0,91,0.00,CLR,OVC,0.00,WeatherDisplay:10.37,2013-08-12 02:46:00,
2013-08-11 22:47:00,64.1,61.1,29.98,ESE,114,0.0,0.0,90,0.00,CLR,OVC,0.00,WeatherDisplay:10.37,2013-08-12 02:47:00,
2013-08-11 22:49:00,64.1,61.4,29.97,ESE,114,0.0,0.0,91,0.00,CLR,OVC,0.00,WeatherDisplay:10.37,2013-08-12 02:49:00,
2013-08-11 22:51:00,64.1,61.4,29.97,ESE,114,0.2,1.0,91,0.00,CLR,OVC,0.00,WeatherDisplay:10.37,2013-08-12 02:51:00,
2013-08-11 22:52:00,64.1,61.4,29.97,ESE,114,0.3,1.2,91,0.00,CLR,OVC,0.00,WeatherDisplay:10.37,2013-08-12 02:52:00,
2013-08-11 22:53:00,64.0,61.3,29.97,ESE,114,0.5,2.0,91,0.00,CLR,OVC,0.00,WeatherDisplay:10.37,2013-08-12 02:53:00,
2013-08-11 22:54:00,63.9,61.2,29.98,ESE,114,1.7,2.3,91,0.00,CLR,OVC,0.00,WeatherDisplay:10.37,2013-08-12 02:54:00,
2013-08-11 22:56:00,63.8,61.1,29.98,ESE,114,1.5,2.3,91,0.00,CLR,OVC,0.00,WeatherDisplay:10.37,2013-08-12 02:56:00,
2013-08-11 22:58:00,63.7,61.3,29.98,ESE,114,2.8,3.5,92,0.00,CLR,OVC,0.00,WeatherDisplay:10.37,2013-08-12 02:58:00,
2013-08-11 23:00:00,63.6,61.2,29.98,ESE,114,2.8,3.5,92,0.00,CLR,OVC,0.00,WeatherDisplay:10.37,2013-08-12 03:00:00,
2013-08-11 23:02:00,63.5,61.1,29.98,ESE,114,2.2,3.5,92,0.00,CLR,OVC,0.00,WeatherDisplay:10.37,2013-08-12 03:02:00,
2013-08-11 23:03:00,63.5,61.1,29.98,ESE,114,2.1,3.5,92,0.00,CLR,OVC,0.00,WeatherDisplay:10.37,2013-08-12 03:03:00,
2013-08-11 23:04:00,63.5,61.4,29.98,ESE,114,2.8,3.5,93,0.00,CLR,OVC,0.00,WeatherDisplay:10.37,2013-08-12 03:04:00,
2013-08-11 23:05:00,63.5,61.4,29.98,ESE,114,2.5,3.5,93,0.00,CLR,OVC,0.00,WeatherDisplay:10.37,2013-08-12 03:05:00,
2013-08-11 23:08:00,63.4,61.3,29.98,ESE,114,0.5,2.0,93,0.00,CLR,OVC,0.00,WeatherDisplay:10.37,2013-08-12 03:08:00,
2013-08-11 23:10:00,63.3,61.2,29.98,ESE,115,0.7,2.3,93,0.00,CLR,OVC,0.00,WeatherDisplay:10.37,2013-08-12 03:10:00,
2013-08-11 23:12:00,63.3,60.9,29.98,ESE,114,0.9,1.2,92,0.00,CLR,OVC,0.00,WeatherDisplay:10.37,2013-08-12 03:12:00,
2013-08-11 23:14:00,63.2,61.1,29.98,ESE,114,0.2,2.3,93,0.00,CLR,OVC,0.00,WeatherDisplay:10.37,2013-08-12 03:14:00,
2013-08-11 23:16:00,63.1,61.0,29.98,ESE,114,0.0,0.0,93,0.00,CLR,OVC,0.00,WeatherDisplay:10.37,2013-08-12 03:16:00,
2013-08-11 23:19:00,63.0,61.0,29.98,ESE,114,0.0,0.0,93,0.00,CLR,OVC,0.00,WeatherDisplay:10.37,2013-08-12 03:19:00,
2013-08-11 23:20:00,63.0,60.9,29.98,ESE,115,0.0,0.0,93,0.00,CLR,OVC,0.00,WeatherDisplay:10.37,2013-08-12 03:20:00,
2013-08-11 23:21:00,63.0,60.9,29.98,ESE,114,0.0,0.0,93,0.00,CLR,OVC,0.00,WeatherDisplay:10.37,2013-08-12 03:21:00,
2013-08-11 23:23:00,63.0,61.2,29.98,ESE,114,0.0,0.0,94,0.00,CLR,OVC,0.00,WeatherDisplay:10.37,2013-08-12 03:23:00,
2013-08-11 23:24:00,63.0,61.2,29.98,ESE,114,0.0,0.0,94,0.00,CLR,OVC,0.00,WeatherDisplay:10.37,2013-08-12 03:24:00,
2013-08-11 23:26:00,63.0,61.2,29.99,ESE,114,0.0,0.0,94,0.00,CLR,OVC,0.00,WeatherDisplay:10.37,2013-08-12 03:26:00,
2013-08-11 23:28:00,63.0,61.2,29.98,ESE,114,0.0,0.0,94,0.00,CLR,OVC,0.00,WeatherDisplay:10.37,2013-08-12 03:28:00,
2013-08-11 23:29:00,63.0,61.2,29.99,ESE,114,0.0,0.0,94,0.00,CLR,OVC,0.00,WeatherDisplay:10.37,2013-08-12 03:29:00,
2013-08-11 23:30:00,63.0,61.2,29.99,ESE,114,0.0,0.0,94,0.00,CLR,OVC,0.00,WeatherDisplay:10.37,2013-08-12 03:30:00,
2013-08-11 23:31:00,63.0,61.2,29.99,ESE,114,0.0,0.0,94,0.00,CLR,OVC,0.00,WeatherDisplay:10.37,2013-08-12 03:31:00,
2013-08-11 23:34:00,63.0,61.2,29.99,ESE,114,0.0,0.0,94,0.00,CLR,OVC,0.00,WeatherDisplay:10.37,2013-08-12 03:34:00,
2013-08-11 23:35:00,63.1,61.3,29.99,ESE,114,0.0,0.0,94,0.00,CLR,OVC,0.00,WeatherDisplay:10.37,2013-08-12 03:35:00,
2013-08-11 23:37:00,63.1,61.3,29.99,ESE,114,0.0,0.0,94,0.00,CLR,OVC,0.00,WeatherDisplay:10.37,2013-08-12 03:37:00,
2013-08-11 23:39:00,63.1,61.3,29.99,ESE,114,0.0,0.0,94,0.00,CLR,OVC,0.00,WeatherDisplay:10.37,2013-08-12 03:39:00,
2013-08-11 23:40:00,63.1,61.3,29.99,ESE,114,0.0,0.0,94,0.00,CLR,OVC,0.00,WeatherDisplay:10.37,2013-08-12 03:40:00,
2013-08-11 23:41:00,63.1,61.3,29.99,ESE,114,0.0,0.0,94,0.00,CLR,OVC,0.00,WeatherDisplay:10.37,2013-08-12 03:41:00,
2013-08-11 23:43:00,63.0,61.2,29.99,ESE,115,1.7,3.5,94,0.00,CLR,OVC,0.00,WeatherDisplay:10.37,2013-08-12 03:43:00,
2013-08-11 23:45:00,63.0,61.2,29.98,ESE,114,0.0,0.0,94,0.00,CLR,OVC,0.00,WeatherDisplay:10.37,2013-08-12 03:45:00,
2013-08-11 23:46:00,63.0,61.2,29.99,ESE,114,0.0,0.0,94,0.00,CLR,OVC,0.00,WeatherDisplay:10.37,2013-08-12 03:46:00,
2013-08-11 23:49:00,62.9,61.1,29.98,ESE,114,0.0,0.0,94,0.00,CLR,OVC,0.00,WeatherDisplay:10.37,2013-08-12 03:49:00,
2013-08-11 23:50:00,62.9,61.1,29.98,ESE,114,1.0,2.3,94,0.00,CLR,OVC,0.00,WeatherDisplay:10.37,2013-08-12 03:50:00,
2013-08-11 23:51:00,62.9,61.1,29.98,ESE,114,1.6,2.3,94,0.00,CLR,OVC,0.00,WeatherDisplay:10.37,2013-08-12 03:51:00,
2013-08-11 23:52:00,62.9,61.1,29.98,ESE,115,1.8,3.5,94,0.00,CLR,OVC,0.00,WeatherDisplay:10.37,2013-08-12 03:52:00,
2013-08-11 23:55:00,62.8,61.0,29.98,ESE,114,0.0,0.0,94,0.00,CLR,OVC,0.00,WeatherDisplay:10.37,2013-08-12 03:55:00,
2013-08-11 23:57:00,62.8,61.3,29.98,ESE,114,0.0,1.2,95,0.00,CLR,OVC,0.00,WeatherDisplay:10.37,2013-08-12 03:57:00,